Wetterdaten: Mittwoch, 31.07.2019
Datum Zeit Temp. Aussen Temp. o. S. +5cm Feuchte Auss Luftdruck Regen Sonnenschein Regendauer Solar Windben Empfang
31.07.2019 00:00 21,6 C 20,0 C 20,0 C 65 % 1013,0 hPa 0,0 l/m 0 min 0 min 0 W/m 9,7 km/h (2 Bft) 92,00 %
31.07.2019 00:02 21,5 C 20,0 C 20,0 C 66 % 1012,9 hPa 0,0 l/m 0 min 0 min 0 W/m 9,7 km/h (2 Bft) 94,87 %
31.07.2019 00:04 21,5 C 20,0 C 20,0 C 66 % 1013,0 hPa 0,0 l/m 0 min 0 min 0 W/m 6,4 km/h (2 Bft) 90,00 %
31.07.2019 00:08 21,4 C 20,0 C 20,0 C 66 % 1013,0 hPa 0,0 l/m 0 min 0 min 0 W/m 6,4 km/h (2 Bft) 93,68 %
31.07.2019 00:10 21,4 C 20,0 C 20,0 C 66 % 1013,0 hPa 0,0 l/m 0 min 0 min 0 W/m 9,7 km/h (2 Bft) 91,43 %
31.07.2019 00:12 21,4 C 20,0 C 20,0 C 66 % 1013,1 hPa 0,0 l/m 0 min 0 min 0 W/m 3,2 km/h (1 Bft) 92,59 %
31.07.2019 00:14 21,4 C 20,0 C 20,0 C 66 % 1013,0 hPa 0,0 l/m 0 min 0 min 0 W/m 6,4 km/h (2 Bft) 94,00 %
31.07.2019 00:16 21,3 C 20,0 C 20,0 C 66 % 1013,0 hPa 0,0 l/m 0 min 0 min 0 W/m 6,4 km/h (2 Bft) 93,88 %
31.07.2019 00:18 21,3 C 20,0 C 20,0 C 66 % 1013,1 hPa 0,0 l/m 0 min 0 min 0 W/m 6,4 km/h (2 Bft) 91,43 %
31.07.2019 00:20 21,3 C 20,0 C 20,0 C 66 % 1013,1 hPa 0,0 l/m 0 min 0 min 0 W/m 3,2 km/h (1 Bft) 93,75 %
31.07.2019 00:22 21,3 C 20,0 C 20,0 C 67 % 1013,1 hPa 0,0 l/m 0 min 0 min 0 W/m 6,4 km/h (2 Bft) 92,73 %
31.07.2019 00:24 21,3 C 20,0 C 20,0 C 67 % 1013,0 hPa 0,0 l/m 0 min 0 min 0 W/m 6,4 km/h (2 Bft) 89,36 %
31.07.2019 00:26 21,2 C 19,4 C 19,4 C 67 % 1013,1 hPa 0,0 l/m 0 min 0 min 0 W/m 0,0 km/h (0 Bft) 95,74 %
31.07.2019 00:28 21,2 C 19,4 C 19,4 C 67 % 1013,1 hPa 0,0 l/m 0 min 0 min 0 W/m 6,4 km/h (2 Bft) 91,49 %
31.07.2019 00:30 21,2 C 19,4 C 19,4 C 67 % 1013,1 hPa 0,0 l/m 0 min 0 min 0 W/m 6,4 km/h (2 Bft) 94,00 %
31.07.2019 00:32 21,2 C 19,4 C 19,4 C 67 % 1013,1 hPa 0,0 l/m 0 min 0 min 0 W/m 6,4 km/h (2 Bft) 95,65 %
31.07.2019 00:34 21,2 C 19,4 C 19,4 C 67 % 1013,1 hPa 0,0 l/m 0 min 0 min 0 W/m 6,4 km/h (2 Bft) 93,62 %
31.07.2019 00:36 21,1 C 19,4 C 19,4 C 67 % 1013,1 hPa 0,0 l/m 0 min 0 min 0 W/m 3,2 km/h (1 Bft) 89,19 %
31.07.2019 00:38 21,1 C 19,4 C 19,4 C 67 % 1013,1 hPa 0,0 l/m 0 min 0 min 0 W/m 3,2 km/h (1 Bft) 95,83 %
31.07.2019 00:40 21,1 C 18,9 C 18,9 C 67 % 1013,1 hPa 0,0 l/m 0 min 0 min 0 W/m 0,0 km/h (0 Bft) 93,62 %
31.07.2019 00:42 21,1 C 19,4 C 18,9 C 67 % 1013,2 hPa 0,0 l/m 0 min 0 min 0 W/m 0,0 km/h (0 Bft) 96,36 %
31.07.2019 00:44 21,0 C 18,9 C 18,9 C 67 % 1013,2 hPa 0,0 l/m 0 min 0 min 0 W/m 0,0 km/h (0 Bft) 97,37 %
31.07.2019 00:46 21,0 C 18,9 C 18,3 C 67 % 1013,2 hPa 0,0 l/m 0 min 0 min 0 W/m 0,0 km/h (0 Bft) 94,00 %
31.07.2019 00:48 21,0 C 18,9 C 18,3 C 67 % 1013,2 hPa 0,0 l/m 0 min 0 min 0 W/m 3,2 km/h (1 Bft) 97,87 %
31.07.2019 00:50 21,0 C 18,9 C 18,3 C 67 % 1013,2 hPa 0,0 l/m 0 min 0 min 0 W/m 3,2 km/h (1 Bft) 100,00 %
31.07.2019 00:52 20,9 C 18,9 C 18,3 C 67 % 1013,2 hPa 0,0 l/m 0 min 0 min 0 W/m 0,0 km/h (0 Bft) 97,92 %
31.07.2019 00:54 20,9 C 18,9 C 18,3 C 68 % 1013,2 hPa 0,0 l/m 0 min 0 min 0 W/m 3,2 km/h (1 Bft) 100,00 %
31.07.2019 00:56 20,8 C 18,9 C 18,3 C 68 % 1013,3 hPa 0,0 l/m 0 min 0 min 0 W/m 0,0 km/h (0 Bft) 93,62 %
31.07.2019 00:58 20,8 C 18,9 C 18,3 C 68 % 1013,2 hPa 0,0 l/m 0 min 0 min 0 W/m 0,0 km/h (0 Bft) 100,00 %
31.07.2019 01:00 20,8 C 18,9 C 18,3 C 68 % 1013,2 hPa 0,0 l/m 0 min 0 min 0 W/m 0,0 km/h (0 Bft) 100,00 %
31.07.2019 01:02 20,7 C 18,9 C 18,3 C 68 % 1013,2 hPa 0,0 l/m 0 min 0 min 0 W/m 0,0 km/h (0 Bft) 97,87 %
31.07.2019 01:04 20,7 C 18,9 C 17,8 C 69 % 1013,2 hPa 0,0 l/m 0 min 0 min 0 W/m 0,0 km/h (0 Bft) 97,67 %
31.07.2019 01:06 20,7 C 18,9 C 17,8 C 68 % 1013,2 hPa 0,0 l/m 0 min 0 min 0 W/m 0,0 km/h (0 Bft) 100,00 %
31.07.2019 01:08 20,6 C 18,3 C 17,8 C 68 % 1013,2 hPa 0,0 l/m 0 min 0 min 0 W/m 0,0 km/h (0 Bft) 100,00 %
31.07.2019 01:10 20,6 C 18,3 C 17,2 C 68 % 1013,3 hPa 0,0 l/m 0 min 0 min 0 W/m 0,0 km/h (0 Bft) 97,92 %
31.07.2019 01:12 20,5 C 18,3 C 17,2 C 69 % 1013,3 hPa 0,0 l/m 0 min 0 min 0 W/m 0,0 km/h (0 Bft) 97,92 %
31.07.2019 01:14 20,5 C 18,9 C 17,2 C 69 % 1013,3 hPa 0,0 l/m 0 min 0 min 0 W/m 0,0 km/h (0 Bft) 100,00 %
31.07.2019 01:16 20,4 C 18,3 C 17,2 C 69 % 1013,2 hPa 0,0 l/m 0 min 0 min 0 W/m 0,0 km/h (0 Bft) 100,00 %
31.07.2019 01:18 20,4 C 18,3 C 17,2 C 69 % 1013,2 hPa 0,0 l/m 0 min 0 min 0 W/m 0,0 km/h (0 Bft) 100,00 %
31.07.2019 01:20 20,4 C 18,3 C 17,2 C 69 % 1013,2 hPa 0,0 l/m 0 min 0 min 0 W/m 0,0 km/h (0 Bft) 100,00 %
31.07.2019 01:22 20,3 C 18,3 C 16,7 C 69 % 1013,2 hPa 0,0 l/m 0 min 0 min 0 W/m 0,0 km/h (0 Bft) 100,00 %
31.07.2019 01:24 20,3 C 18,3 C 16,7 C 69 % 1013,2 hPa 0,0 l/m 0 min 0 min 0 W/m 3,2 km/h (1 Bft) 97,87 %
31.07.2019 01:26 20,3 C 18,3 C 17,2 C 69 % 1013,2 hPa 0,0 l/m 0 min 0 min 0 W/m 3,2 km/h (1 Bft) 97,87 %
31.07.2019 01:28 20,2 C 18,3 C 17,2 C 70 % 1013,2 hPa 0,0 l/m 0 min 0 min 0 W/m 3,2 km/h (1 Bft) 100,00 %
31.07.2019 01:30 20,2 C 18,3 C 17,8 C 70 % 1013,2 hPa 0,0 l/m 0 min 0 min 0 W/m 3,2 km/h (1 Bft) 100,00 %
31.07.2019 01:32 20,2 C 18,3 C 17,2 C 70 % 1013,2 hPa 0,0 l/m 0 min 0 min 0 W/m 0,0 km/h (0 Bft) 100,00 %
31.07.2019 01:34 20,1 C 18,3 C 17,8 C 70 % 1013,2 hPa 0,0 l/m 0 min 0 min 0 W/m 6,4 km/h (2 Bft) 100,00 %
31.07.2019 01:36 20,1 C 18,3 C 17,8 C 70 % 1013,2 hPa 0,0 l/m 0 min 0 min 0 W/m 3,2 km/h (1 Bft) 100,00 %
31.07.2019 01:38 20,1 C 18,3 C 17,8 C 70 % 1013,2 hPa 0,0 l/m 0 min 0 min 0 W/m 3,2 km/h (1 Bft) 100,00 %
31.07.2019 01:40 20,0 C 18,3 C 17,8 C 70 % 1013,2 hPa 0,0 l/m 0 min 0 min 0 W/m 0,0 km/h (0 Bft) 100,00 %
31.07.2019 01:42 20,0 C 18,3 C 17,8 C 70 % 1013,2 hPa 0,0 l/m 0 min 0 min 0 W/m 6,4 km/h (2 Bft) 100,00 %
31.07.2019 01:44 19,9 C 18,3 C 17,8 C 70 % 1013,2 hPa 0,0 l/m 0 min 0 min 0 W/m 3,2 km/h (1 Bft) 100,00 %
31.07.2019 01:46 19,9 C 18,3 C 17,8 C 71 % 1013,2 hPa 0,0 l/m 0 min 0 min 0 W/m 0,0 km/h (0 Bft) 97,87 %
31.07.2019 01:48 19,9 C 18,3 C 17,8 C 71 % 1013,2 hPa 0,0 l/m 0 min 0 min 0 W/m 0,0 km/h (0 Bft) 100,00 %
31.07.2019 01:50 19,8 C 18,3 C 17,8 C 71 % 1013,2 hPa 0,0 l/m 0 min 0 min 0 W/m 0,0 km/h (0 Bft) 100,00 %
31.07.2019 01:52 19,8 C 18,3 C 17,8 C 71 % 1013,3 hPa 0,0 l/m 0 min 0 min 0 W/m 3,2 km/h (1 Bft) 100,00 %
31.07.2019 01:54 19,8 C 18,3 C 17,8 C 71 % 1013,2 hPa 0,0 l/m 0 min 0 min 0 W/m 3,2 km/h (1 Bft) 100,00 %
31.07.2019 01:56 19,8 C 18,3 C 17,8 C 71 % 1013,3 hPa 0,0 l/m 0 min 0 min 0 W/m 0,0 km/h (0 Bft) 100,00 %
31.07.2019 01:58 19,7 C 18,3 C 17,8 C 71 % 1013,3 hPa 0,0 l/m 0 min 0 min 0 W/m 3,2 km/h (1 Bft) 100,00 %
31.07.2019 02:00 19,7 C 18,3 C 17,8 C 72 % 1013,3 hPa 0,0 l/m 0 min 0 min 0 W/m 3,2 km/h (1 Bft) 97,87 %
31.07.2019 02:02 19,7 C 18,3 C 17,8 C 72 % 1013,3 hPa 0,0 l/m 0 min 0 min 0 W/m 3,2 km/h (1 Bft) 100,00 %
31.07.2019 02:04 19,7 C 17,8 C 17,8 C 72 % 1013,3 hPa 0,0 l/m 0 min 0 min 0 W/m 3,2 km/h (1 Bft) 97,83 %
31.07.2019 02:06 19,6 C 17,8 C 17,8 C 72 % 1013,3 hPa 0,0 l/m 0 min 0 min 0 W/m 3,2 km/h (1 Bft) 100,00 %
31.07.2019 02:08 19,6 C 18,3 C 17,8 C 72 % 1013,3 hPa 0,0 l/m 0 min 0 min 0 W/m 6,4 km/h (2 Bft) 100,00 %
31.07.2019 02:10 19,6 C 18,3 C 17,8 C 72 % 1013,4 hPa 0,0 l/m 0 min 0 min 0 W/m 12,9 km/h (3 Bft) 100,00 %
31.07.2019 02:12 19,6 C 18,3 C 17,8 C 72 % 1013,3 hPa 0,0 l/m 0 min 0 min 0 W/m 6,4 km/h (2 Bft) 95,74 %
31.07.2019 02:14 19,5 C 18,3 C 17,8 C 72 % 1013,3 hPa 0,0 l/m 0 min 0 min 0 W/m 6,4 km/h (2 Bft) 100,00 %
31.07.2019 02:16 19,5 C 18,3 C 18,3 C 72 % 1013,4 hPa 0,0 l/m 0 min 0 min 0 W/m 3,2 km/h (1 Bft) 97,83 %
31.07.2019 02:18 19,4 C 17,8 C 17,8 C 72 % 1013,3 hPa 0,0 l/m 0 min 0 min 0 W/m 6,4 km/h (2 Bft) 97,87 %
31.07.2019 02:20 19,4 C 17,8 C 17,8 C 72 % 1013,3 hPa 0,0 l/m 0 min 0 min 0 W/m 6,4 km/h (2 Bft) 100,00 %
31.07.2019 02:22 19,4 C 17,8 C 17,8 C 72 % 1013,3 hPa 0,0 l/m 0 min 0 min 0 W/m 6,4 km/h (2 Bft) 97,87 %
31.07.2019 02:24 19,3 C 17,8 C 17,8 C 72 % 1013,4 hPa 0,0 l/m 0 min 0 min 0 W/m 6,4 km/h (2 Bft) 97,87 %
31.07.2019 02:26 19,3 C 17,8 C 17,8 C 72 % 1013,4 hPa 0,0 l/m 0 min 0 min 0 W/m 3,2 km/h (1 Bft) 97,87 %
31.07.2019 02:28 19,3 C 17,8 C 17,8 C 72 % 1013,4 hPa 0,0 l/m 0 min 0 min 0 W/m 3,2 km/h (1 Bft) 95,65 %
31.07.2019 02:30 19,3 C 17,8 C 17,8 C 72 % 1013,5 hPa 0,0 l/m 0 min 0 min 0 W/m 6,4 km/h (2 Bft) 97,87 %
31.07.2019 02:32 19,2 C 17,8 C 17,8 C 72 % 1013,5 hPa 0,0 l/m 0 min 0 min 0 W/m 6,4 km/h (2 Bft) 97,87 %
31.07.2019 02:34 19,2 C 17,8 C 17,8 C 72 % 1013,5 hPa 0,0 l/m 0 min 0 min 0 W/m 6,4 km/h (2 Bft) 97,87 %
31.07.2019 02:36 19,2 C 17,8 C 18,3 C 72 % 1013,5 hPa 0,0 l/m 0 min 0 min 0 W/m 3,2 km/h (1 Bft) 97,87 %
31.07.2019 02:38 19,2 C 18,3 C 18,3 C 72 % 1013,5 hPa 0,0 l/m 0 min 0 min 0 W/m 6,4 km/h (2 Bft) 97,87 %
31.07.2019 02:40 19,2 C 18,3 C 18,3 C 72 % 1013,5 hPa 0,0 l/m 0 min 0 min 0 W/m 6,4 km/h (2 Bft) 97,83 %
31.07.2019 02:42 19,2 C 17,8 C 18,3 C 72 % 1013,5 hPa 0,0 l/m 0 min 0 min 0 W/m 0,0 km/h (0 Bft) 95,74 %
31.07.2019 02:44 19,2 C 17,8 C 17,8 C 72 % 1013,5 hPa 0,0 l/m 0 min 0 min 0 W/m 0,0 km/h (0 Bft) 95,74 %
31.07.2019 02:46 19,1 C 17,8 C 17,8 C 72 % 1013,4 hPa 0,0 l/m 0 min 0 min 0 W/m 3,2 km/h (1 Bft) 95,74 %
31.07.2019 02:48 19,1 C 17,8 C 17,8 C 72 % 1013,6 hPa 0,0 l/m 0 min 0 min 0 W/m 3,2 km/h (1 Bft) 93,62 %
31.07.2019 02:50 19,1 C 17,8 C 17,8 C 72 % 1013,5 hPa 0,0 l/m 0 min 0 min 0 W/m 6,4 km/h (2 Bft) 93,62 %
31.07.2019 02:52 19,1 C 17,8 C 17,8 C 72 % 1013,6 hPa 0,0 l/m 0 min 0 min 0 W/m 9,7 km/h (2 Bft) 95,65 %
31.07.2019 02:54 19,1 C 17,8 C 17,8 C 72 % 1013,5 hPa 0,0 l/m 0 min 0 min 0 W/m 6,4 km/h (2 Bft) 95,74 %
31.07.2019 02:56 19,1 C 17,8 C 17,8 C 72 % 1013,5 hPa 0,0 l/m 0 min 0 min 0 W/m 6,4 km/h (2 Bft) 93,62 %
31.07.2019 02:58 19,1 C 17,8 C 17,8 C 72 % 1013,5 hPa 0,0 l/m 0 min 0 min 0 W/m 6,4 km/h (2 Bft) 95,24 %
31.07.2019 03:00 19,1 C 17,8 C 17,8 C 72 % 1013,5 hPa 0,0 l/m 0 min 0 min 0 W/m 0,0 km/h (0 Bft) 95,65 %
31.07.2019 03:02 19,0 C 17,8 C 17,8 C 72 % 1013,5 hPa 0,0 l/m 0 min 0 min 0 W/m 6,4 km/h (2 Bft) 96,00 %
31.07.2019 03:04 19,0 C 17,8 C 17,8 C 72 % 1013,5 hPa 0,0 l/m 0 min 0 min 0 W/m 3,2 km/h (1 Bft) 95,92 %
31.07.2019 03:06 19,0 C 17,8 C 17,8 C 72 % 1013,5 hPa 0,0 l/m 0 min 0 min 0 W/m 6,4 km/h (2 Bft) 95,74 %
31.07.2019 03:08 19,0 C 17,8 C 17,8 C 72 % 1013,4 hPa 0,0 l/m 0 min 0 min 0 W/m 6,4 km/h (2 Bft) 96,00 %
31.07.2019 03:10 19,0 C 17,8 C 17,8 C 72 % 1013,4 hPa 0,0 l/m 0 min 0 min 0 W/m 3,2 km/h (1 Bft) 93,48 %
31.07.2019 03:12 19,0 C 17,8 C 17,8 C 72 % 1013,4 hPa 0,0 l/m 0 min 0 min 0 W/m 3,2 km/h (1 Bft) 93,75 %
31.07.2019 03:14 19,0 C 17,8 C 17,8 C 72 % 1013,4 hPa 0,0 l/m 0 min 0 min 0 W/m 0,0 km/h (0 Bft) 97,83 %
31.07.2019 03:16 18,9 C 17,8 C 17,8 C 73 % 1013,3 hPa 0,0 l/m 0 min 0 min 0 W/m 0,0 km/h (0 Bft) 97,87 %
31.07.2019 03:18 18,9 C 17,8 C 17,8 C 73 % 1013,3 hPa 0,0 l/m 0 min 0 min 0 W/m 3,2 km/h (1 Bft) 97,87 %
31.07.2019 03:20 18,9 C 17,8 C 17,8 C 73 % 1013,4 hPa 0,0 l/m 0 min 0 min 0 W/m 9,7 km/h (2 Bft) 95,74 %
31.07.2019 03:22 18,9 C 18,3 C 17,8 C 73 % 1013,4 hPa 0,0 l/m 0 min 0 min 0 W/m 9,7 km/h (2 Bft) 97,87 %
31.07.2019 03:24 18,9 C 18,3 C 17,8 C 73 % 1013,4 hPa 0,0 l/m 0 min 0 min 0 W/m 3,2 km/h (1 Bft) 97,87 %
31.07.2019 03:26 18,9 C 18,3 C 17,8 C 73 % 1013,4 hPa 0,0 l/m 0 min 0 min 0 W/m 9,7 km/h (2 Bft) 97,83 %
31.07.2019 03:28 18,9 C 18,3 C 17,8 C 73 % 1013,4 hPa 0,0 l/m 0 min 0 min 0 W/m 3,2 km/h (1 Bft) 93,62 %
31.07.2019 03:30 18,9 C 18,3 C 17,8 C 73 % 1013,4 hPa 0,0 l/m 0 min 0 min 0 W/m 6,4 km/h (2 Bft) 93,62 %
31.07.2019 03:32 18,9 C 18,3 C 17,8 C 73 % 1013,4 hPa 0,0 l/m 0 min 0 min 0 W/m 9,7 km/h (2 Bft) 97,87 %
31.07.2019 03:34 18,9 C 18,3 C 18,3 C 73 % 1013,4 hPa 0,0 l/m 0 min 0 min 0 W/m 0,0 km/h (0 Bft) 97,87 %
31.07.2019 03:36 18,9 C 18,3 C 17,8 C 73 % 1013,4 hPa 0,0 l/m 0 min 0 min 0 W/m 0,0 km/h (0 Bft) 95,65 %
31.07.2019 03:38 18,9 C 17,8 C 17,8 C 73 % 1013,4 hPa 0,0 l/m 0 min 0 min 0 W/m 0,0 km/h (0 Bft) 97,87 %
31.07.2019 03:40 18,9 C 17,8 C 17,8 C 73 % 1013,4 hPa 0,0 l/m 0 min 0 min 0 W/m 3,2 km/h (1 Bft) 97,87 %
31.07.2019 03:42 18,9 C 17,8 C 17,8 C 73 % 1013,5 hPa 0,0 l/m 0 min 0 min 0 W/m 0,0 km/h (0 Bft) 97,87 %
31.07.2019 03:44 18,9 C 17,8 C 17,8 C 73 % 1013,4 hPa 0,0 l/m 0 min 0 min 0 W/m 9,7 km/h (2 Bft) 97,87 %
31.07.2019 03:46 18,9 C 18,3 C 17,8 C 73 % 1013,4 hPa 0,0 l/m 0 min 0 min 0 W/m 6,4 km/h (2 Bft) 95,74 %
31.07.2019 03:48 18,9 C 17,8 C 17,8 C 73 % 1013,5 hPa 0,0 l/m 0 min 0 min 0 W/m 6,4 km/h (2 Bft) 97,83 %
31.07.2019 03:50 18,9 C 17,8 C 17,8 C 73 % 1013,4 hPa 0,0 l/m 0 min 0 min 0 W/m 3,2 km/h (1 Bft) 97,87 %
31.07.2019 03:52 18,9 C 18,3 C 18,3 C 73 % 1013,4 hPa 0,0 l/m 0 min 0 min 0 W/m 6,4 km/h (2 Bft) 93,62 %
31.07.2019 03:54 18,9 C 17,8 C 18,3 C 74 % 1013,5 hPa 0,0 l/m 0 min 0 min 0 W/m 3,2 km/h (1 Bft) 95,74 %
31.07.2019 03:56 18,9 C 17,8 C 17,8 C 74 % 1013,5 hPa 0,0 l/m 0 min 0 min 0 W/m 6,4 km/h (2 Bft) 97,87 %
31.07.2019 03:58 18,9 C 17,8 C 17,8 C 74 % 1013,6 hPa 0,0 l/m 0 min 0 min 0 W/m 3,2 km/h (1 Bft) 97,87 %
31.07.2019 04:00 18,9 C 17,8 C 17,8 C 74 % 1013,5 hPa 0,0 l/m 0 min 0 min 0 W/m 0,0 km/h (0 Bft) 97,83 %
31.07.2019 04:02 18,9 C 17,8 C 17,8 C 74 % 1013,5 hPa 0,0 l/m 0 min 0 min 0 W/m 6,4 km/h (2 Bft) 100,00 %
31.07.2019 04:04 18,9 C 17,8 C 17,8 C 74 % 1013,5 hPa 0,0 l/m 0 min 0 min 0 W/m 9,7 km/h (2 Bft) 97,87 %
31.07.2019 04:06 18,9 C 17,8 C 17,8 C 74 % 1013,4 hPa 0,0 l/m 0 min 0 min 0 W/m 0,0 km/h (0 Bft) 95,74 %
31.07.2019 04:08 18,9 C 17,8 C 17,8 C 74 % 1013,4 hPa 0,0 l/m 0 min 0 min 0 W/m 0,0 km/h (0 Bft) 97,87 %
31.07.2019 04:10 18,9 C 17,8 C 17,8 C 74 % 1013,5 hPa 0,0 l/m 0 min 0 min 0 W/m 3,2 km/h (1 Bft) 97,87 %
31.07.2019 04:12 18,9 C 17,8 C 17,8 C 74 % 1013,5 hPa 0,0 l/m 0 min 0 min 0 W/m 6,4 km/h (2 Bft) 97,83 %
31.07.2019 04:14 18,9 C 17,8 C 17,8 C 74 % 1013,5 hPa 0,0 l/m 0 min 0 min 0 W/m 3,2 km/h (1 Bft) 97,87 %
31.07.2019 04:16 18,9 C 17,8 C 17,8 C 74 % 1013,4 hPa 0,0 l/m 0 min 0 min 0 W/m 6,4 km/h (2 Bft) 97,87 %
31.07.2019 04:18 18,9 C 17,8 C 17,8 C 74 % 1013,5 hPa 0,0 l/m 0 min 0 min 0 W/m 9,7 km/h (2 Bft) 95,74 %
31.07.2019 04:20 18,8 C 17,8 C 17,8 C 74 % 1013,5 hPa 0,0 l/m 0 min 0 min 0 W/m 9,7 km/h (2 Bft) 97,87 %
31.07.2019 04:22 18,8 C 17,8 C 17,8 C 74 % 1013,4 hPa 0,0 l/m 0 min 0 min 0 W/m 6,4 km/h (2 Bft) 97,87 %
31.07.2019 04:24 18,8 C 17,8 C 17,8 C 74 % 1013,5 hPa 0,0 l/m 0 min 0 min 0 W/m 6,4 km/h (2 Bft) 97,83 %
31.07.2019 04:26 18,8 C 17,8 C 17,8 C 74 % 1013,4 hPa 0,0 l/m 0 min 0 min 0 W/m 9,7 km/h (2 Bft) 97,87 %
31.07.2019 04:28 18,8 C 17,8 C 17,8 C 74 % 1013,6 hPa 0,0 l/m 0 min 0 min 0 W/m 9,7 km/h (2 Bft) 95,74 %
31.07.2019 04:30 18,8 C 18,3 C 17,8 C 74 % 1013,5 hPa 0,0 l/m 0 min 0 min 0 W/m 9,7 km/h (2 Bft) 100,00 %
31.07.2019 04:32 18,8 C 18,3 C 17,8 C 74 % 1013,6 hPa 0,0 l/m 0 min 0 min 0 W/m 9,7 km/h (2 Bft) 97,87 %
31.07.2019 04:34 18,8 C 18,3 C 17,8 C 74 % 1013,7 hPa 0,0 l/m 0 min 0 min 0 W/m 6,4 km/h (2 Bft) 100,00 %
31.07.2019 04:36 18,8 C 17,8 C 17,8 C 74 % 1013,6 hPa 0,0 l/m 0 min 0 min 0 W/m 6,4 km/h (2 Bft) 97,92 %
31.07.2019 04:38 18,8 C 17,8 C 17,8 C 74 % 1013,6 hPa 0,0 l/m 0 min 0 min 0 W/m 0,0 km/h (0 Bft) 100,00 %
31.07.2019 04:40 18,8 C 18,3 C 17,8 C 74 % 1013,6 hPa 0,0 l/m 0 min 0 min 0 W/m 6,4 km/h (2 Bft) 100,00 %
31.07.2019 04:42 18,8 C 17,8 C 17,8 C 74 % 1013,7 hPa 0,0 l/m 0 min 0 min 0 W/m 6,4 km/h (2 Bft) 100,00 %
31.07.2019 04:44 18,8 C 18,3 C 18,3 C 74 % 1013,6 hPa 0,0 l/m 0 min 0 min 0 W/m 12,9 km/h (3 Bft) 100,00 %
31.07.2019 04:46 18,8 C 18,3 C 18,3 C 73 % 1013,7 hPa 0,0 l/m 0 min 0 min 0 W/m 9,7 km/h (2 Bft) 95,74 %
31.07.2019 04:48 18,8 C 18,3 C 18,3 C 73 % 1013,7 hPa 0,0 l/m 0 min 0 min 0 W/m 16,1 km/h (3 Bft) 100,00 %
31.07.2019 04:50 18,8 C 18,3 C 18,3 C 73 % 1013,8 hPa 0,0 l/m 0 min 0 min 0 W/m 12,9 km/h (3 Bft) 100,00 %
31.07.2019 04:52 18,9 C 18,3 C 17,8 C 73 % 1013,8 hPa 0,0 l/m 0 min 0 min 0 W/m 12,9 km/h (3 Bft) 100,00 %
31.07.2019 04:54 18,9 C 18,3 C 17,8 C 73 % 1013,9 hPa 0,0 l/m 0 min 0 min 0 W/m 9,7 km/h (2 Bft) 100,00 %
31.07.2019 04:56 18,9 C 18,3 C 17,8 C 73 % 1013,9 hPa 0,0 l/m 0 min 0 min 0 W/m 6,4 km/h (2 Bft) 97,83 %
31.07.2019 04:58 18,9 C 17,8 C 17,8 C 73 % 1013,9 hPa 0,0 l/m 0 min 0 min 0 W/m 3,2 km/h (1 Bft) 100,00 %
31.07.2019 05:00 18,9 C 17,8 C 17,8 C 73 % 1014,0 hPa 0,0 l/m 0 min 0 min 0 W/m 16,1 km/h (3 Bft) 100,00 %
31.07.2019 05:02 18,9 C 17,8 C 17,8 C 73 % 1014,0 hPa 0,0 l/m 0 min 0 min 0 W/m 6,4 km/h (2 Bft) 93,62 %
31.07.2019 05:04 18,9 C 17,8 C 17,8 C 73 % 1013,9 hPa 0,0 l/m 0 min 0 min 0 W/m 6,4 km/h (2 Bft) 100,00 %
31.07.2019 05:06 18,9 C 17,8 C 17,8 C 73 % 1014,1 hPa 0,0 l/m 0 min 0 min 0 W/m 9,7 km/h (2 Bft) 100,00 %
31.07.2019 05:08 18,9 C 17,8 C 17,8 C 73 % 1014,0 hPa 0,0 l/m 0 min 0 min 0 W/m 9,7 km/h (2 Bft) 97,87 %
31.07.2019 05:10 18,9 C 17,8 C 17,8 C 72 % 1014,0 hPa 0,0 l/m 0 min 0 min 0 W/m 6,4 km/h (2 Bft) 97,87 %
31.07.2019 05:12 18,9 C 17,8 C 17,8 C 72 % 1014,0 hPa 0,0 l/m 0 min 0 min 0 W/m 9,7 km/h (2 Bft) 95,74 %
31.07.2019 05:14 18,9 C 17,8 C 17,8 C 72 % 1014,0 hPa 0,0 l/m 0 min 0 min 0 W/m 9,7 km/h (2 Bft) 100,00 %
31.07.2019 05:16 18,9 C 17,8 C 17,8 C 72 % 1014,0 hPa 0,0 l/m 0 min 0 min 0 W/m 6,4 km/h (2 Bft) 95,74 %
31.07.2019 05:18 18,9 C 17,8 C 17,8 C 72 % 1014,0 hPa 0,0 l/m 0 min 0 min 0 W/m 16,1 km/h (3 Bft) 97,83 %
31.07.2019 05:20 18,9 C 17,8 C 17,8 C 72 % 1014,1 hPa 0,0 l/m 0 min 0 min 0 W/m 12,9 km/h (3 Bft) 97,87 %
31.07.2019 05:22 18,9 C 17,8 C 17,8 C 72 % 1014,0 hPa 0,0 l/m 0 min 0 min 0 W/m 6,4 km/h (2 Bft) 97,87 %
31.07.2019 05:24 18,9 C 17,8 C 17,8 C 72 % 1014,0 hPa 0,0 l/m 0 min 0 min 0 W/m 9,7 km/h (2 Bft) 97,87 %
31.07.2019 05:26 18,9 C 17,8 C 17,8 C 72 % 1014,0 hPa 0,0 l/m 0 min 0 min 0 W/m 6,4 km/h (2 Bft) 97,87 %
31.07.2019 05:28 18,8 C 17,8 C 17,8 C 72 % 1014,1 hPa 0,0 l/m 0 min 0 min 0 W/m 6,4 km/h (2 Bft) 95,74 %
31.07.2019 05:30 18,9 C 17,8 C 17,8 C 72 % 1014,1 hPa 0,0 l/m 0 min 0 min 0 W/m 6,4 km/h (2 Bft) 97,83 %
31.07.2019 05:32 18,8 C 17,8 C 17,8 C 72 % 1014,1 hPa 0,0 l/m 0 min 0 min 0 W/m 16,1 km/h (3 Bft) 93,62 %
31.07.2019 05:34 18,9 C 17,8 C 17,8 C 72 % 1014,1 hPa 0,0 l/m 0 min 0 min 0 W/m 6,4 km/h (2 Bft) 91,49 %
31.07.2019 05:36 18,8 C 17,8 C 17,8 C 72 % 1014,2 hPa 0,0 l/m 0 min 0 min 0 W/m 0,0 km/h (0 Bft) 95,74 %
31.07.2019 05:38 18,8 C 17,8 C 17,8 C 72 % 1014,2 hPa 0,0 l/m 0 min 0 min 0 W/m 6,4 km/h (2 Bft) 95,74 %
31.07.2019 05:40 18,8 C 17,8 C 17,8 C 72 % 1014,3 hPa 0,0 l/m 0 min 0 min 0 W/m 3,2 km/h (1 Bft) 95,74 %
31.07.2019 05:42 18,8 C 17,8 C 17,8 C 72 % 1014,3 hPa 0,0 l/m 0 min 0 min 0 W/m 6,4 km/h (2 Bft) 95,74 %
31.07.2019 05:44 18,8 C 17,8 C 17,8 C 72 % 1014,2 hPa 0,0 l/m 0 min 0 min 0 W/m 9,7 km/h (2 Bft) 95,74 %
31.07.2019 05:46 18,8 C 17,8 C 17,8 C 72 % 1014,2 hPa 0,0 l/m 0 min 0 min 0 W/m 3,2 km/h (1 Bft) 95,65 %
31.07.2019 05:48 18,8 C 17,8 C 17,8 C 72 % 1014,2 hPa 0,0 l/m 0 min 0 min 0 W/m 3,2 km/h (1 Bft) 95,74 %
31.07.2019 05:50 18,8 C 17,8 C 17,8 C 72 % 1014,2 hPa 0,0 l/m 0 min 0 min 0 W/m 6,4 km/h (2 Bft) 93,62 %
31.07.2019 05:52 18,8 C 17,8 C 17,8 C 72 % 1014,2 hPa 0,0 l/m 0 min 0 min 0 W/m 6,4 km/h (2 Bft) 95,24 %
31.07.2019 05:54 18,8 C 17,8 C 17,8 C 72 % 1014,3 hPa 0,0 l/m 0 min 0 min 0 W/m 6,4 km/h (2 Bft) 95,65 %
31.07.2019 05:56 18,8 C 17,2 C 17,8 C 72 % 1014,3 hPa 0,0 l/m 0 min 0 min 0 W/m 3,2 km/h (1 Bft) 95,83 %
31.07.2019 05:58 18,8 C 17,2 C 17,2 C 72 % 1014,3 hPa 0,0 l/m 0 min 0 min 0 W/m 9,7 km/h (2 Bft) 96,00 %
31.07.2019 06:00 18,8 C 17,2 C 17,2 C 72 % 1014,3 hPa 0,0 l/m 0 min 0 min 0 W/m 6,4 km/h (2 Bft) 95,74 %
31.07.2019 06:02 18,8 C 17,8 C 17,2 C 73 % 1014,3 hPa 0,0 l/m 0 min 0 min 0 W/m 9,7 km/h (2 Bft) 95,83 %
31.07.2019 06:04 18,7 C 17,8 C 17,2 C 73 % 1014,3 hPa 0,0 l/m 0 min 0 min 0 W/m 6,4 km/h (2 Bft) 93,33 %
31.07.2019 06:08 18,7 C 17,8 C 17,8 C 73 % 1014,3 hPa 0,0 l/m 0 min 0 min 5 W/m 9,7 km/h (2 Bft) 94,74 %
31.07.2019 06:10 18,7 C 17,8 C 17,8 C 72 % 1014,4 hPa 0,0 l/m 0 min 0 min 5 W/m 9,7 km/h (2 Bft) 97,87 %
31.07.2019 06:12 18,7 C 17,8 C 17,8 C 72 % 1014,4 hPa 0,0 l/m 0 min 0 min 6 W/m 9,7 km/h (2 Bft) 97,87 %
31.07.2019 06:14 18,7 C 17,8 C 17,8 C 72 % 1014,4 hPa 0,0 l/m 0 min 0 min 7 W/m 6,4 km/h (2 Bft) 97,87 %
31.07.2019 06:16 18,7 C 17,8 C 17,8 C 73 % 1014,4 hPa 0,0 l/m 0 min 0 min 8 W/m 9,7 km/h (2 Bft) 100,00 %
31.07.2019 06:18 18,7 C 17,8 C 17,8 C 73 % 1014,4 hPa 0,0 l/m 0 min 0 min 9 W/m 9,7 km/h (2 Bft) 97,87 %
31.07.2019 06:20 18,7 C 17,8 C 17,8 C 73 % 1014,4 hPa 0,0 l/m 0 min 0 min 11 W/m 6,4 km/h (2 Bft) 97,83 %
31.07.2019 06:22 18,7 C 17,8 C 17,8 C 73 % 1014,5 hPa 0,0 l/m 0 min 0 min 11 W/m 6,4 km/h (2 Bft) 100,00 %
31.07.2019 06:24 18,7 C 17,8 C 17,8 C 73 % 1014,5 hPa 0,0 l/m 0 min 0 min 12 W/m 6,4 km/h (2 Bft) 100,00 %
31.07.2019 06:26 18,7 C 17,8 C 17,8 C 73 % 1014,5 hPa 0,0 l/m 0 min 0 min 14 W/m 6,4 km/h (2 Bft) 97,62 %
31.07.2019 06:28 18,6 C 17,8 C 17,8 C 73 % 1014,5 hPa 0,0 l/m 0 min 0 min 16 W/m 3,2 km/h (1 Bft) 95,83 %
31.07.2019 06:30 18,6 C 17,8 C 17,8 C 73 % 1014,6 hPa 0,0 l/m 0 min 0 min 17 W/m 9,7 km/h (2 Bft) 97,87 %
31.07.2019 06:32 18,6 C 17,8 C 17,8 C 73 % 1014,6 hPa 0,0 l/m 0 min 0 min 18 W/m 3,2 km/h (1 Bft) 100,00 %
31.07.2019 06:34 18,6 C 17,8 C 17,8 C 73 % 1014,8 hPa 0,0 l/m 0 min 0 min 19 W/m 0,0 km/h (0 Bft) 100,00 %
31.07.2019 06:36 18,6 C 17,8 C 17,8 C 73 % 1014,7 hPa 0,0 l/m 0 min 0 min 20 W/m 3,2 km/h (1 Bft) 100,00 %
31.07.2019 06:38 18,6 C 17,8 C 17,8 C 73 % 1014,8 hPa 0,0 l/m 0 min 0 min 22 W/m 0,0 km/h (0 Bft) 100,00 %
31.07.2019 06:40 18,6 C 17,8 C 17,2 C 73 % 1014,8 hPa 0,0 l/m 0 min 0 min 25 W/m 6,4 km/h (2 Bft) 100,00 %
31.07.2019 06:42 18,6 C 17,8 C 17,2 C 73 % 1014,8 hPa 0,0 l/m 0 min 0 min 26 W/m 3,2 km/h (1 Bft) 100,00 %
31.07.2019 06:44 18,6 C 17,8 C 17,2 C 73 % 1014,8 hPa 0,0 l/m 0 min 0 min 28 W/m 3,2 km/h (1 Bft) 100,00 %
31.07.2019 06:46 18,6 C 17,8 C 17,2 C 73 % 1014,8 hPa 0,0 l/m 0 min 0 min 30 W/m 3,2 km/h (1 Bft) 100,00 %
31.07.2019 06:48 18,6 C 17,8 C 17,2 C 73 % 1014,9 hPa 0,0 l/m 0 min 0 min 31 W/m 3,2 km/h (1 Bft) 100,00 %
31.07.2019 06:50 18,6 C 17,8 C 17,2 C 73 % 1014,9 hPa 0,0 l/m 0 min 0 min 32 W/m 0,0 km/h (0 Bft) 100,00 %
31.07.2019 06:52 18,6 C 17,8 C 17,2 C 73 % 1014,8 hPa 0,0 l/m 0 min 0 min 30 W/m 3,2 km/h (1 Bft) 100,00 %
31.07.2019 06:54 18,6 C 17,8 C 17,2 C 73 % 1015,0 hPa 0,0 l/m 0 min 0 min 28 W/m 3,2 km/h (1 Bft) 100,00 %
31.07.2019 06:56 18,6 C 17,8 C 17,2 C 73 % 1015,0 hPa 0,0 l/m 0 min 0 min 28 W/m 6,4 km/h (2 Bft) 97,87 %
31.07.2019 06:58 18,5 C 17,8 C 17,2 C 74 % 1014,9 hPa 0,0 l/m 0 min 0 min 26 W/m 3,2 km/h (1 Bft) 100,00 %
31.07.2019 07:00 18,5 C 17,8 C 17,2 C 74 % 1014,8 hPa 0,0 l/m 0 min 0 min 25 W/m 6,4 km/h (2 Bft) 100,00 %
31.07.2019 07:02 18,5 C 17,8 C 17,2 C 74 % 1014,9 hPa 0,0 l/m 0 min 0 min 25 W/m 3,2 km/h (1 Bft) 97,67 %
31.07.2019 07:04 18,5 C 17,8 C 17,2 C 74 % 1015,0 hPa 0,0 l/m 0 min 0 min 25 W/m 6,4 km/h (2 Bft) 97,83 %
31.07.2019 07:06 18,4 C 17,8 C 17,2 C 74 % 1015,0 hPa 0,0 l/m 0 min 0 min 26 W/m 6,4 km/h (2 Bft) 95,83 %
31.07.2019 07:08 18,4 C 17,8 C 17,2 C 74 % 1014,9 hPa 0,0 l/m 0 min 0 min 26 W/m 6,4 km/h (2 Bft) 97,92 %
31.07.2019 07:10 18,4 C 17,8 C 17,2 C 74 % 1014,9 hPa 0,0 l/m 0 min 0 min 28 W/m 9,7 km/h (2 Bft) 97,87 %
31.07.2019 07:12 18,4 C 17,8 C 17,2 C 74 % 1014,9 hPa 0,0 l/m 0 min 0 min 28 W/m 6,4 km/h (2 Bft) 95,74 %
31.07.2019 07:14 18,4 C 17,8 C 17,2 C 74 % 1015,0 hPa 0,0 l/m 0 min 0 min 29 W/m 12,9 km/h (3 Bft) 97,83 %
31.07.2019 07:16 18,4 C 17,8 C 17,2 C 74 % 1015,0 hPa 0,0 l/m 0 min 0 min 30 W/m 12,9 km/h (3 Bft) 95,83 %
31.07.2019 07:18 18,4 C 17,8 C 17,2 C 74 % 1015,0 hPa 0,0 l/m 0 min 0 min 30 W/m 9,7 km/h (2 Bft) 95,83 %
31.07.2019 07:20 18,4 C 17,8 C 17,2 C 75 % 1015,1 hPa 0,0 l/m 0 min 0 min 32 W/m 9,7 km/h (2 Bft) 97,87 %
31.07.2019 07:22 18,3 C 17,8 C 17,2 C 75 % 1015,1 hPa 0,0 l/m 0 min 0 min 32 W/m 6,4 km/h (2 Bft) 95,74 %
31.07.2019 07:24 18,3 C 17,8 C 17,2 C 74 % 1015,1 hPa 0,0 l/m 0 min 0 min 33 W/m 3,2 km/h (1 Bft) 97,87 %
31.07.2019 07:26 18,3 C 17,8 C 17,2 C 75 % 1015,0 hPa 0,0 l/m 0 min 0 min 35 W/m 9,7 km/h (2 Bft) 97,87 %
31.07.2019 07:28 18,3 C 17,8 C 17,2 C 75 % 1015,1 hPa 0,0 l/m 0 min 0 min 35 W/m 6,4 km/h (2 Bft) 97,87 %
31.07.2019 07:30 18,3 C 17,8 C 17,2 C 75 % 1015,1 hPa 0,0 l/m 0 min 0 min 37 W/m 12,9 km/h (3 Bft) 97,83 %
31.07.2019 07:32 18,3 C 17,8 C 17,2 C 75 % 1015,1 hPa 0,0 l/m 0 min 0 min 38 W/m 9,7 km/h (2 Bft) 93,62 %
31.07.2019 07:34 18,3 C 17,8 C 17,2 C 75 % 1015,1 hPa 0,0 l/m 0 min 0 min 39 W/m 12,9 km/h (3 Bft) 97,87 %
31.07.2019 07:36 18,3 C 17,8 C 17,2 C 75 % 1015,1 hPa 0,0 l/m 0 min 0 min 39 W/m 9,7 km/h (2 Bft) 97,87 %
31.07.2019 07:38 18,3 C 17,8 C 17,2 C 75 % 1015,1 hPa 0,0 l/m 0 min 0 min 40 W/m 9,7 km/h (2 Bft) 97,87 %
31.07.2019 07:40 18,3 C 17,8 C 17,8 C 75 % 1015,1 hPa 0,0 l/m 0 min 0 min 40 W/m 6,4 km/h (2 Bft) 97,83 %
31.07.2019 07:42 18,3 C 17,8 C 17,8 C 75 % 1015,1 hPa 0,0 l/m 0 min 0 min 41 W/m 6,4 km/h (2 Bft) 97,87 %
31.07.2019 07:44 18,3 C 18,3 C 17,8 C 75 % 1015,1 hPa 0,0 l/m 0 min 0 min 42 W/m 9,7 km/h (2 Bft) 97,62 %
31.07.2019 07:46 18,3 C 17,8 C 17,8 C 75 % 1015,2 hPa 0,0 l/m 0 min 0 min 43 W/m 19,3 km/h (3 Bft) 97,92 %
31.07.2019 07:48 18,4 C 17,8 C 17,8 C 75 % 1015,2 hPa 0,0 l/m 0 min 0 min 44 W/m 12,9 km/h (3 Bft) 97,92 %
31.07.2019 07:50 18,4 C 18,3 C 17,8 C 75 % 1015,2 hPa 0,0 l/m 0 min 0 min 46 W/m 12,9 km/h (3 Bft) 97,87 %
31.07.2019 07:52 18,4 C 18,3 C 17,8 C 75 % 1015,2 hPa 0,0 l/m 0 min 0 min 46 W/m 12,9 km/h (3 Bft) 95,83 %
31.07.2019 07:54 18,4 C 18,3 C 17,8 C 75 % 1015,2 hPa 0,0 l/m 0 min 0 min 47 W/m 9,7 km/h (2 Bft) 97,87 %
31.07.2019 07:56 18,4 C 18,3 C 17,8 C 75 % 1015,1 hPa 0,0 l/m 0 min 0 min 48 W/m 12,9 km/h (3 Bft) 95,74 %
31.07.2019 07:58 18,4 C 18,3 C 17,8 C 75 % 1015,2 hPa 0,0 l/m 0 min 0 min 49 W/m 16,1 km/h (3 Bft) 93,75 %
31.07.2019 08:00 18,4 C 18,3 C 17,8 C 75 % 1015,1 hPa 0,0 l/m 0 min 0 min 50 W/m 12,9 km/h (3 Bft) 97,87 %
31.07.2019 08:02 18,5 C 18,3 C 17,8 C 75 % 1015,2 hPa 0,0 l/m 0 min 0 min 53 W/m 16,1 km/h (3 Bft) 100,00 %
31.07.2019 08:04 18,5 C 18,3 C 17,8 C 74 % 1015,1 hPa 0,0 l/m 0 min 0 min 54 W/m 6,4 km/h (2 Bft) 97,83 %
31.07.2019 08:06 18,5 C 18,3 C 17,8 C 74 % 1015,2 hPa 0,0 l/m 0 min 0 min 54 W/m 16,1 km/h (3 Bft) 97,62 %
31.07.2019 08:08 18,6 C 18,3 C 17,8 C 74 % 1015,1 hPa 0,0 l/m 0 min 0 min 54 W/m 12,9 km/h (3 Bft) 97,92 %
31.07.2019 08:10 18,6 C 18,3 C 17,8 C 74 % 1015,1 hPa 0,0 l/m 0 min 0 min 54 W/m 12,9 km/h (3 Bft) 95,83 %
31.07.2019 08:12 18,6 C 18,3 C 17,8 C 74 % 1015,2 hPa 0,0 l/m 0 min 0 min 54 W/m 22,5 km/h (4 Bft) 97,87 %
31.07.2019 08:14 18,6 C 18,3 C 17,8 C 74 % 1015,2 hPa 0,0 l/m 0 min 0 min 56 W/m 16,1 km/h (3 Bft) 95,74 %
31.07.2019 08:16 18,6 C 18,3 C 17,8 C 74 % 1015,3 hPa 0,0 l/m 0 min 0 min 58 W/m 22,5 km/h (4 Bft) 95,83 %
31.07.2019 08:18 18,7 C 18,3 C 17,8 C 74 % 1015,2 hPa 0,0 l/m 0 min 0 min 61 W/m 9,7 km/h (2 Bft) 93,75 %
31.07.2019 08:20 18,7 C 18,3 C 18,3 C 74 % 1015,2 hPa 0,0 l/m 0 min 0 min 63 W/m 9,7 km/h (2 Bft) 93,62 %
31.07.2019 08:22 18,7 C 18,9 C 18,3 C 74 % 1015,2 hPa 0,0 l/m 0 min 0 min 68 W/m 16,1 km/h (3 Bft) 95,74 %
31.07.2019 08:24 18,7 C 18,9 C 18,3 C 74 % 1015,3 hPa 0,0 l/m 0 min 0 min 72 W/m 22,5 km/h (4 Bft) 91,49 %
31.07.2019 08:26 18,7 C 20,0 C 18,3 C 74 % 1015,3 hPa 0,0 l/m 0 min 0 min 82 W/m 38,6 km/h (5 Bft) 95,74 %
31.07.2019 08:28 18,8 C 20,6 C 18,3 C 74 % 1015,3 hPa 0,0 l/m 0 min 0 min 94 W/m 19,3 km/h (3 Bft) 95,65 %
31.07.2019 08:30 18,8 C 21,7 C 18,3 C 74 % 1015,2 hPa 0,0 l/m 0 min 0 min 106 W/m 16,1 km/h (3 Bft) 95,74 %
31.07.2019 08:32 18,9 C 22,2 C 18,3 C 74 % 1015,2 hPa 0,0 l/m 0 min 0 min 119 W/m 16,1 km/h (3 Bft) 95,74 %
31.07.2019 08:34 18,9 C 21,7 C 18,9 C 74 % 1015,3 hPa 0,0 l/m 0 min 0 min 131 W/m 25,7 km/h (4 Bft) 95,74 %
31.07.2019 08:36 19,1 C 22,2 C 18,9 C 74 % 1015,2 hPa 0,0 l/m 0 min 0 min 136 W/m 19,3 km/h (3 Bft) 93,62 %
31.07.2019 08:38 19,2 C 22,8 C 18,9 C 74 % 1015,2 hPa 0,0 l/m 0 min 0 min 137 W/m 19,3 km/h (3 Bft) 94,59 %
31.07.2019 08:40 19,3 C 22,8 C 19,4 C 73 % 1015,2 hPa 0,0 l/m 0 min 0 min 142 W/m 12,9 km/h (3 Bft) 95,74 %
31.07.2019 08:42 19,4 C 22,8 C 19,4 C 73 % 1015,2 hPa 0,0 l/m 0 min 0 min 150 W/m 29,0 km/h (5 Bft) 95,74 %
31.07.2019 08:44 19,6 C 22,8 C 19,4 C 72 % 1015,3 hPa 0,0 l/m 0 min 0 min 160 W/m 25,7 km/h (4 Bft) 95,74 %
31.07.2019 08:46 19,8 C 22,8 C 19,4 C 72 % 1015,2 hPa 0,0 l/m 0 min 0 min 178 W/m 25,7 km/h (4 Bft) 93,62 %
31.07.2019 08:48 19,9 C 22,8 C 19,4 C 72 % 1015,3 hPa 0,0 l/m 0 min 0 min 195 W/m 16,1 km/h (3 Bft) 95,74 %
31.07.2019 08:50 20,0 C 22,8 C 19,4 C 71 % 1015,4 hPa 0,0 l/m 2 min 0 min 224 W/m 16,1 km/h (3 Bft) 95,74 %
31.07.2019 08:52 20,2 C 22,8 C 20,0 C 71 % 1015,3 hPa 0,0 l/m 2 min 0 min 245 W/m 12,9 km/h (3 Bft) 95,74 %
31.07.2019 08:54 20,3 C 23,3 C 21,7 C 71 % 1015,4 hPa 0,0 l/m 2 min 0 min 266 W/m 12,9 km/h (3 Bft) 97,83 %
31.07.2019 08:56 20,4 C 23,9 C 23,3 C 71 % 1015,3 hPa 0,0 l/m 2 min 0 min 288 W/m 12,9 km/h (3 Bft) 95,74 %
31.07.2019 08:58 20,5 C 22,8 C 23,3 C 70 % 1015,4 hPa 0,0 l/m 2 min 0 min 299 W/m 35,4 km/h (5 Bft) 93,62 %
31.07.2019 09:00 20,6 C 22,2 C 22,8 C 69 % 1015,4 hPa 0,0 l/m 2 min 0 min 303 W/m 25,7 km/h (4 Bft) 97,87 %
31.07.2019 09:02 20,6 C 22,8 C 23,3 C 69 % 1015,4 hPa 0,0 l/m 2 min 0 min 374 W/m 22,5 km/h (4 Bft) 97,87 %
31.07.2019 09:04 20,7 C 22,2 C 22,8 C 69 % 1015,5 hPa 0,0 l/m 2 min 0 min 410 W/m 29,0 km/h (5 Bft) 93,62 %
31.07.2019 09:06 20,7 C 22,2 C 23,3 C 69 % 1015,3 hPa 0,0 l/m 2 min 0 min 445 W/m 29,0 km/h (5 Bft) 95,65 %
31.07.2019 09:08 20,7 C 23,3 C 23,9 C 69 % 1015,4 hPa 0,0 l/m 2 min 0 min 478 W/m 16,1 km/h (3 Bft) 97,87 %
31.07.2019 09:10 20,8 C 23,9 C 24,4 C 69 % 1015,3 hPa 0,0 l/m 2 min 0 min 505 W/m 19,3 km/h (3 Bft) 97,87 %
31.07.2019 09:12 20,8 C 23,3 C 24,4 C 69 % 1015,3 hPa 0,0 l/m 2 min 0 min 500 W/m 22,5 km/h (4 Bft) 97,87 %
31.07.2019 09:14 20,9 C 23,3 C 24,4 C 69 % 1015,5 hPa 0,0 l/m 2 min 0 min 543 W/m 29,0 km/h (5 Bft) 100,00 %
31.07.2019 09:16 20,9 C 23,3 C 23,9 C 69 % 1015,4 hPa 0,0 l/m 2 min 0 min 535 W/m 25,7 km/h (4 Bft) 100,00 %
31.07.2019 09:18 21,0 C 22,8 C 23,3 C 68 % 1015,4 hPa 0,0 l/m 2 min 0 min 534 W/m 29,0 km/h (5 Bft) 100,00 %
31.07.2019 09:20 21,0 C 24,4 C 25,0 C 69 % 1015,4 hPa 0,0 l/m 2 min 0 min 548 W/m 19,3 km/h (3 Bft) 100,00 %
31.07.2019 09:22 21,1 C 25,0 C 25,6 C 69 % 1015,3 hPa 0,0 l/m 2 min 0 min 571 W/m 12,9 km/h (3 Bft) 100,00 %
31.07.2019 09:24 21,2 C 23,3 C 24,4 C 69 % 1015,5 hPa 0,0 l/m 2 min 0 min 375 W/m 19,3 km/h (3 Bft) 100,00 %
31.07.2019 09:26 21,2 C 22,8 C 22,8 C 68 % 1015,5 hPa 0,0 l/m 2 min 0 min 265 W/m 16,1 km/h (3 Bft) 100,00 %
31.07.2019 09:28 21,2 C 22,8 C 23,3 C 68 % 1015,5 hPa 0,0 l/m 2 min 0 min 347 W/m 16,1 km/h (3 Bft) 100,00 %
31.07.2019 09:30 21,1 C 22,2 C 22,2 C 68 % 1015,6 hPa 0,0 l/m 2 min 0 min 326 W/m 12,9 km/h (3 Bft) 100,00 %
31.07.2019 09:32 21,1 C 22,2 C 22,2 C 68 % 1015,5 hPa 0,0 l/m 2 min 0 min 271 W/m 12,9 km/h (3 Bft) 97,87 %
31.07.2019 09:34 21,2 C 23,9 C 24,4 C 69 % 1015,6 hPa 0,0 l/m 2 min 0 min 465 W/m 16,1 km/h (3 Bft) 100,00 %
31.07.2019 09:36 21,2 C 23,3 C 24,4 C 68 % 1015,5 hPa 0,0 l/m 2 min 0 min 473 W/m 25,7 km/h (4 Bft) 100,00 %
31.07.2019 09:38 21,3 C 22,8 C 23,3 C 68 % 1015,5 hPa 0,0 l/m 2 min 0 min 347 W/m 19,3 km/h (3 Bft) 100,00 %
31.07.2019 09:40 21,2 C 22,2 C 21,7 C 68 % 1015,5 hPa 0,0 l/m 0 min 0 min 208 W/m 9,7 km/h (2 Bft) 100,00 %
31.07.2019 09:42 21,2 C 21,7 C 21,1 C 68 % 1015,5 hPa 0,0 l/m 0 min 0 min 203 W/m 9,7 km/h (2 Bft) 97,87 %
31.07.2019 09:44 21,2 C 21,7 C 21,1 C 68 % 1015,6 hPa 0,0 l/m 0 min 0 min 216 W/m 25,7 km/h (4 Bft) 100,00 %
31.07.2019 09:46 21,2 C 21,1 C 20,6 C 68 % 1015,6 hPa 0,0 l/m 0 min 0 min 245 W/m 19,3 km/h (3 Bft) 100,00 %
31.07.2019 09:48 21,2 C 21,1 C 20,6 C 67 % 1015,6 hPa 0,0 l/m 0 min 0 min 256 W/m 29,0 km/h (5 Bft) 100,00 %
31.07.2019 09:50 21,1 C 21,1 C 20,6 C 68 % 1015,6 hPa 0,0 l/m 2 min 0 min 282 W/m 22,5 km/h (4 Bft) 100,00 %
31.07.2019 09:52 21,1 C 21,1 C 20,6 C 68 % 1015,6 hPa 0,0 l/m 2 min 0 min 296 W/m 22,5 km/h (4 Bft) 97,87 %
31.07.2019 09:54 21,0 C 21,1 C 20,6 C 67 % 1015,7 hPa 0,0 l/m 2 min 0 min 300 W/m 22,5 km/h (4 Bft) 100,00 %
31.07.2019 09:56 21,0 C 21,1 C 20,6 C 68 % 1015,6 hPa 0,0 l/m 2 min 0 min 290 W/m 22,5 km/h (4 Bft) 100,00 %
31.07.2019 09:58 20,9 C 21,1 C 20,6 C 68 % 1015,7 hPa 0,0 l/m 0 min 0 min 280 W/m 19,3 km/h (3 Bft) 100,00 %
31.07.2019 10:00 20,9 C 21,7 C 21,1 C 69 % 1015,6 hPa 0,0 l/m 0 min 0 min 275 W/m 16,1 km/h (3 Bft) 100,00 %
31.07.2019 10:02 20,9 C 21,7 C 21,1 C 68 % 1015,7 hPa 0,0 l/m 0 min 0 min 265 W/m 16,1 km/h (3 Bft) 100,00 %
31.07.2019 10:04 20,8 C 21,1 C 20,6 C 68 % 1015,7 hPa 0,0 l/m 0 min 0 min 262 W/m 19,3 km/h (3 Bft) 100,00 %
31.07.2019 10:06 20,8 C 21,1 C 21,1 C 68 % 1015,7 hPa 0,0 l/m 0 min 0 min 285 W/m 12,9 km/h (3 Bft) 100,00 %
31.07.2019 10:08 20,8 C 21,7 C 21,1 C 69 % 1015,7 hPa 0,0 l/m 0 min 0 min 263 W/m 12,9 km/h (3 Bft) 100,00 %
31.07.2019 10:10 20,8 C 21,7 C 21,1 C 69 % 1015,8 hPa 0,0 l/m 0 min 0 min 269 W/m 12,9 km/h (3 Bft) 97,87 %
31.07.2019 10:12 20,8 C 22,2 C 21,1 C 69 % 1015,7 hPa 0,0 l/m 2 min 0 min 301 W/m 12,9 km/h (3 Bft) 95,65 %
31.07.2019 10:14 20,8 C 22,2 C 21,1 C 69 % 1015,7 hPa 0,0 l/m 2 min 0 min 300 W/m 22,5 km/h (4 Bft) 97,87 %
31.07.2019 10:16 20,8 C 22,2 C 21,1 C 68 % 1015,7 hPa 0,0 l/m 2 min 0 min 335 W/m 25,7 km/h (4 Bft) 97,87 %
31.07.2019 10:18 20,9 C 22,2 C 21,7 C 69 % 1015,7 hPa 0,0 l/m 2 min 0 min 356 W/m 16,1 km/h (3 Bft) 97,87 %
31.07.2019 10:20 20,9 C 22,8 C 21,7 C 69 % 1015,7 hPa 0,0 l/m 2 min 0 min 343 W/m 16,1 km/h (3 Bft) 97,87 %
31.07.2019 10:22 20,9 C 22,8 C 22,2 C 69 % 1015,7 hPa 0,0 l/m 2 min 0 min 369 W/m 12,9 km/h (3 Bft) 97,87 %
31.07.2019 10:24 21,0 C 22,8 C 22,2 C 68 % 1015,8 hPa 0,0 l/m 2 min 0 min 378 W/m 19,3 km/h (3 Bft) 97,83 %
31.07.2019 10:26 21,1 C 22,8 C 22,2 C 69 % 1015,8 hPa 0,0 l/m 2 min 0 min 416 W/m 12,9 km/h (3 Bft) 95,74 %
31.07.2019 10:28 21,1 C 22,8 C 22,2 C 68 % 1015,6 hPa 0,0 l/m 2 min 0 min 383 W/m 16,1 km/h (3 Bft) 97,87 %
31.07.2019 10:30 21,2 C 22,8 C 21,7 C 68 % 1015,6 hPa 0,0 l/m 2 min 0 min 366 W/m 19,3 km/h (3 Bft) 97,87 %
31.07.2019 10:32 21,2 C 22,2 C 21,7 C 68 % 1015,6 hPa 0,0 l/m 0 min 0 min 312 W/m 19,3 km/h (3 Bft) 97,87 %
31.07.2019 10:34 21,2 C 22,8 C 22,2 C 68 % 1015,6 hPa 0,0 l/m 0 min 0 min 308 W/m 12,9 km/h (3 Bft) 97,87 %
31.07.2019 10:36 21,2 C 22,8 C 22,2 C 68 % 1015,7 hPa 0,0 l/m 2 min 0 min 337 W/m 19,3 km/h (3 Bft) 97,83 %
31.07.2019 10:38 21,3 C 22,2 C 21,7 C 67 % 1015,8 hPa 0,0 l/m 0 min 0 min 277 W/m 12,9 km/h (3 Bft) 97,87 %
31.07.2019 10:40 21,3 C 23,3 C 22,8 C 68 % 1015,8 hPa 0,0 l/m 2 min 0 min 324 W/m 16,1 km/h (3 Bft) 95,74 %
31.07.2019 10:42 21,3 C 22,8 C 22,2 C 68 % 1015,7 hPa 0,0 l/m 2 min 0 min 374 W/m 22,5 km/h (4 Bft) 95,74 %
31.07.2019 10:44 21,4 C 23,9 C 23,3 C 67 % 1015,7 hPa 0,0 l/m 2 min 0 min 382 W/m 9,7 km/h (2 Bft) 95,74 %
31.07.2019 10:46 21,4 C 23,3 C 22,8 C 67 % 1015,7 hPa 0,0 l/m 2 min 0 min 361 W/m 16,1 km/h (3 Bft) 95,74 %
31.07.2019 10:48 21,4 C 23,3 C 22,2 C 67 % 1015,7 hPa 0,0 l/m 0 min 0 min 319 W/m 16,1 km/h (3 Bft) 95,65 %
31.07.2019 10:50 21,5 C 22,8 C 22,2 C 67 % 1015,6 hPa 0,0 l/m 2 min 0 min 355 W/m 12,9 km/h (3 Bft) 93,62 %
31.07.2019 10:52 21,5 C 22,8 C 22,2 C 67 % 1015,7 hPa 0,0 l/m 0 min 0 min 293 W/m 12,9 km/h (3 Bft) 95,74 %
31.07.2019 10:54 21,5 C 22,8 C 21,7 C 67 % 1015,6 hPa 0,0 l/m 0 min 0 min 317 W/m 19,3 km/h (3 Bft) 95,74 %
31.07.2019 10:56 21,5 C 23,3 C 22,8 C 67 % 1015,7 hPa 0,0 l/m 2 min 0 min 383 W/m 16,1 km/h (3 Bft) 95,74 %
31.07.2019 10:58 21,6 C 22,8 C 22,8 C 67 % 1015,7 hPa 0,0 l/m 2 min 0 min 409 W/m 19,3 km/h (3 Bft) 95,74 %
31.07.2019 11:00 21,6 C 23,3 C 22,8 C 67 % 1015,7 hPa 0,0 l/m 2 min 0 min 473 W/m 22,5 km/h (4 Bft) 95,65 %
31.07.2019 11:02 21,6 C 23,3 C 22,8 C 67 % 1015,7 hPa 0,0 l/m 2 min 0 min 597 W/m 19,3 km/h (3 Bft) 97,87 %
31.07.2019 11:04 21,6 C 22,2 C 22,2 C 66 % 1015,9 hPa 0,0 l/m 2 min 0 min 374 W/m 38,6 km/h (5 Bft) 96,00 %
31.07.2019 11:06 21,6 C 22,2 C 21,7 C 66 % 1015,8 hPa 0,0 l/m 2 min 0 min 346 W/m 22,5 km/h (4 Bft) 93,75 %
31.07.2019 11:08 21,6 C 22,8 C 22,2 C 67 % 1015,8 hPa 0,0 l/m 2 min 0 min 379 W/m 19,3 km/h (3 Bft) 97,87 %
31.07.2019 11:10 21,6 C 22,8 C 22,2 C 67 % 1015,8 hPa 0,0 l/m 2 min 0 min 446 W/m 22,5 km/h (4 Bft) 97,87 %
31.07.2019 11:12 21,6 C 22,2 C 22,2 C 67 % 1015,8 hPa 0,0 l/m 0 min 0 min 289 W/m 16,1 km/h (3 Bft) 95,74 %
31.07.2019 11:14 21,6 C 23,3 C 22,8 C 67 % 1015,8 hPa 0,0 l/m 2 min 0 min 387 W/m 19,3 km/h (3 Bft) 95,65 %
31.07.2019 11:16 21,6 C 23,9 C 23,3 C 67 % 1015,8 hPa 0,0 l/m 2 min 0 min 477 W/m 16,1 km/h (3 Bft) 97,87 %
31.07.2019 11:18 21,7 C 24,4 C 23,9 C 68 % 1015,8 hPa 0,0 l/m 2 min 0 min 522 W/m 16,1 km/h (3 Bft) 97,87 %
31.07.2019 11:20 21,7 C 23,3 C 23,3 C 67 % 1015,8 hPa 0,0 l/m 2 min 0 min 366 W/m 29,0 km/h (5 Bft) 97,87 %
31.07.2019 11:22 21,7 C 22,2 C 22,2 C 67 % 1015,7 hPa 0,0 l/m 0 min 0 min 309 W/m 25,7 km/h (4 Bft) 93,62 %
31.07.2019 11:24 21,7 C 22,2 C 21,7 C 67 % 1015,7 hPa 0,0 l/m 0 min 0 min 291 W/m 16,1 km/h (3 Bft) 97,83 %
31.07.2019 11:26 21,7 C 22,2 C 21,7 C 67 % 1015,8 hPa 0,0 l/m 0 min 0 min 314 W/m 16,1 km/h (3 Bft) 100,00 %
31.07.2019 11:28 21,7 C 21,7 C 21,7 C 67 % 1015,8 hPa 0,0 l/m 0 min 0 min 274 W/m 32,2 km/h (5 Bft) 97,87 %
31.07.2019 11:30 21,7 C 21,7 C 21,1 C 67 % 1015,8 hPa 0,0 l/m 0 min 0 min 213 W/m 16,1 km/h (3 Bft) 97,87 %
31.07.2019 11:32 21,6 C 21,7 C 21,1 C 67 % 1015,9 hPa 0,0 l/m 0 min 0 min 229 W/m 25,7 km/h (4 Bft) 100,00 %
31.07.2019 11:34 21,6 C 22,2 C 21,7 C 67 % 1015,7 hPa 0,0 l/m 0 min 0 min 297 W/m 19,3 km/h (3 Bft) 100,00 %
31.07.2019 11:36 21,6 C 22,8 C 22,2 C 67 % 1015,8 hPa 0,0 l/m 2 min 0 min 372 W/m 32,2 km/h (5 Bft) 97,83 %
31.07.2019 11:38 21,6 C 23,3 C 22,8 C 68 % 1015,8 hPa 0,0 l/m 2 min 0 min 571 W/m 19,3 km/h (3 Bft) 100,00 %
31.07.2019 11:40 21,6 C 24,4 C 23,3 C 68 % 1015,8 hPa 0,0 l/m 2 min 0 min 626 W/m 19,3 km/h (3 Bft) 97,87 %
31.07.2019 11:42 21,7 C 24,4 C 23,9 C 68 % 1015,8 hPa 0,0 l/m 2 min 0 min 651 W/m 12,9 km/h (3 Bft) 100,00 %
31.07.2019 11:44 21,8 C 23,3 C 22,8 C 67 % 1015,9 hPa 0,0 l/m 2 min 0 min 450 W/m 22,5 km/h (4 Bft) 100,00 %
31.07.2019 11:46 21,8 C 22,8 C 22,2 C 67 % 1015,9 hPa 0,0 l/m 0 min 0 min 253 W/m 35,4 km/h (5 Bft) 100,00 %
31.07.2019 11:48 21,8 C 22,2 C 21,7 C 67 % 1015,9 hPa 0,0 l/m 0 min 0 min 259 W/m 22,5 km/h (4 Bft) 97,83 %
31.07.2019 11:50 21,8 C 22,2 C 21,7 C 67 % 1016,0 hPa 0,0 l/m 0 min 0 min 264 W/m 25,7 km/h (4 Bft) 100,00 %
31.07.2019 11:52 21,8 C 22,2 C 21,7 C 67 % 1016,1 hPa 0,0 l/m 0 min 0 min 309 W/m 29,0 km/h (5 Bft) 97,87 %
31.07.2019 11:54 21,8 C 22,8 C 21,7 C 67 % 1015,9 hPa 0,0 l/m 0 min 0 min 337 W/m 19,3 km/h (3 Bft) 97,62 %
31.07.2019 11:56 21,8 C 22,8 C 22,2 C 67 % 1016,0 hPa 0,0 l/m 0 min 0 min 334 W/m 16,1 km/h (3 Bft) 97,87 %
31.07.2019 11:58 21,8 C 22,2 C 20,6 C 68 % 1015,9 hPa 0,0 l/m 0 min 2 min 256 W/m 16,1 km/h (3 Bft) 97,83 %
31.07.2019 12:00 21,8 C 22,2 C 20,6 C 68 % 1015,9 hPa 0,0 l/m 0 min 0 min 284 W/m 19,3 km/h (3 Bft) 97,87 %
31.07.2019 12:02 21,8 C 23,3 C 22,2 C 68 % 1015,9 hPa 0,0 l/m 0 min 0 min 327 W/m 22,5 km/h (4 Bft) 97,87 %
31.07.2019 12:04 21,8 C 23,3 C 22,8 C 68 % 1015,9 hPa 0,0 l/m 0 min 0 min 341 W/m 16,1 km/h (3 Bft) 96,00 %
31.07.2019 12:08 21,8 C 23,3 C 22,8 C 67 % 1016,0 hPa 0,0 l/m 0 min 0 min 323 W/m 32,2 km/h (5 Bft) 96,81 %
31.07.2019 12:10 21,9 C 23,9 C 22,8 C 67 % 1016,0 hPa 0,0 l/m 2 min 0 min 675 W/m 16,1 km/h (3 Bft) 97,87 %
31.07.2019 12:12 21,9 C 23,3 C 22,8 C 67 % 1015,9 hPa 0,0 l/m 2 min 0 min 535 W/m 16,1 km/h (3 Bft) 93,62 %
31.07.2019 12:14 21,9 C 22,2 C 22,2 C 67 % 1015,9 hPa 0,0 l/m 0 min 0 min 134 W/m 22,5 km/h (4 Bft) 95,74 %
31.07.2019 12:16 21,9 C 20,6 C 20,6 C 67 % 1015,9 hPa 0,0 l/m 0 min 0 min 109 W/m 12,9 km/h (3 Bft) 95,74 %
31.07.2019 12:18 21,9 C 18,9 C 20,0 C 67 % 1015,9 hPa 0,0 l/m 0 min 2 min 134 W/m 12,9 km/h (3 Bft) 97,87 %
31.07.2019 12:20 21,9 C 18,9 C 20,0 C 68 % 1016,1 hPa 0,0 l/m 0 min 0 min 164 W/m 16,1 km/h (3 Bft) 93,62 %
31.07.2019 12:22 21,8 C 19,4 C 20,6 C 67 % 1015,9 hPa 0,0 l/m 0 min 0 min 207 W/m 19,3 km/h (3 Bft) 97,87 %
31.07.2019 12:24 21,8 C 20,0 C 21,1 C 67 % 1016,0 hPa 0,0 l/m 0 min 0 min 220 W/m 16,1 km/h (3 Bft) 97,87 %
31.07.2019 12:26 21,8 C 20,6 C 21,7 C 67 % 1016,1 hPa 0,0 l/m 0 min 0 min 232 W/m 9,7 km/h (2 Bft) 97,87 %
31.07.2019 12:28 21,8 C 21,7 C 21,7 C 67 % 1016,0 hPa 0,0 l/m 0 min 0 min 261 W/m 9,7 km/h (2 Bft) 97,87 %
31.07.2019 12:30 21,8 C 22,2 C 22,2 C 67 % 1016,1 hPa 0,0 l/m 0 min 0 min 311 W/m 12,9 km/h (3 Bft) 93,62 %
31.07.2019 12:32 21,8 C 22,8 C 22,2 C 67 % 1016,0 hPa 0,0 l/m 2 min 0 min 414 W/m 12,9 km/h (3 Bft) 97,87 %
31.07.2019 12:34 21,8 C 22,8 C 22,2 C 67 % 1016,1 hPa 0,0 l/m 2 min 0 min 406 W/m 29,0 km/h (5 Bft) 97,87 %
31.07.2019 12:36 21,8 C 24,4 C 22,8 C 67 % 1015,9 hPa 0,0 l/m 2 min 0 min 407 W/m 16,1 km/h (3 Bft) 97,87 %
31.07.2019 12:38 21,9 C 23,9 C 23,3 C 67 % 1016,0 hPa 0,0 l/m 2 min 0 min 446 W/m 22,5 km/h (4 Bft) 97,87 %
31.07.2019 12:40 21,9 C 22,8 C 22,2 C 67 % 1016,0 hPa 0,0 l/m 0 min 0 min 270 W/m 19,3 km/h (3 Bft) 95,74 %
31.07.2019 12:42 21,9 C 21,7 C 21,7 C 67 % 1015,9 hPa 0,0 l/m 0 min 0 min 149 W/m 22,5 km/h (4 Bft) 95,74 %
31.07.2019 12:44 21,9 C 21,7 C 21,7 C 67 % 1016,0 hPa 0,0 l/m 0 min 0 min 167 W/m 9,7 km/h (2 Bft) 95,74 %
31.07.2019 12:46 21,9 C 21,7 C 20,6 C 67 % 1015,9 hPa 0,0 l/m 0 min 2 min 211 W/m 22,5 km/h (4 Bft) 97,83 %
31.07.2019 12:48 21,9 C 17,8 C 17,2 C 70 % 1016,0 hPa 0,0 l/m 0 min 2 min 259 W/m 25,7 km/h (4 Bft) 97,87 %
31.07.2019 12:50 21,9 C 18,9 C 17,2 C 72 % 1016,0 hPa 0,0 l/m 0 min 2 min 313 W/m 19,3 km/h (3 Bft) 97,87 %
31.07.2019 12:52 21,9 C 19,4 C 18,3 C 73 % 1015,9 hPa 0,0 l/m 2 min 2 min 927 W/m 19,3 km/h (3 Bft) 97,87 %
31.07.2019 12:54 21,8 C 19,4 C 18,9 C 74 % 1015,9 hPa 0,0 l/m 0 min 0 min 380 W/m 19,3 km/h (3 Bft) 100,00 %
31.07.2019 12:56 21,8 C 19,4 C 18,3 C 72 % 1015,9 hPa 0,0 l/m 0 min 0 min 328 W/m 16,1 km/h (3 Bft) 100,00 %
31.07.2019 12:58 21,8 C 19,4 C 18,3 C 72 % 1016,0 hPa 0,0 l/m 0 min 0 min 242 W/m 25,7 km/h (4 Bft) 100,00 %
31.07.2019 13:00 21,7 C 20,6 C 18,3 C 71 % 1015,9 hPa 0,0 l/m 0 min 0 min 263 W/m 12,9 km/h (3 Bft) 97,87 %
31.07.2019 13:02 21,7 C 21,7 C 18,9 C 71 % 1015,9 hPa 0,0 l/m 0 min 0 min 346 W/m 12,9 km/h (3 Bft) 100,00 %
31.07.2019 13:04 21,7 C 23,9 C 20,6 C 72 % 1016,0 hPa 0,0 l/m 2 min 0 min 763 W/m 19,3 km/h (3 Bft) 100,00 %
31.07.2019 13:06 21,7 C 26,7 C 22,2 C 72 % 1016,0 hPa 0,0 l/m 2 min 0 min 1027 W/m 16,1 km/h (3 Bft) 100,00 %
31.07.2019 13:08 21,8 C 27,8 C 25,0 C 71 % 1016,0 hPa 0,0 l/m 2 min 0 min 1110 W/m 22,5 km/h (4 Bft) 100,00 %
31.07.2019 13:10 21,9 C 27,8 C 27,2 C 70 % 1015,8 hPa 0,0 l/m 2 min 0 min 1111 W/m 16,1 km/h (3 Bft) 100,00 %
31.07.2019 13:12 22,1 C 27,2 C 26,1 C 69 % 1015,8 hPa 0,0 l/m 2 min 0 min 572 W/m 22,5 km/h (4 Bft) 97,92 %
31.07.2019 13:14 22,3 C 26,1 C 25,6 C 67 % 1015,9 hPa 0,0 l/m 2 min 0 min 456 W/m 22,5 km/h (4 Bft) 95,74 %
31.07.2019 13:16 22,4 C 25,0 C 24,4 C 66 % 1015,9 hPa 0,0 l/m 2 min 0 min 509 W/m 16,1 km/h (3 Bft) 97,87 %
31.07.2019 13:18 22,5 C 23,9 C 23,3 C 65 % 1015,8 hPa 0,0 l/m 0 min 0 min 304 W/m 16,1 km/h (3 Bft) 95,65 %
31.07.2019 13:20 22,6 C 23,3 C 22,8 C 65 % 1015,8 hPa 0,0 l/m 0 min 0 min 300 W/m 19,3 km/h (3 Bft) 95,83 %
31.07.2019 13:22 22,6 C 25,0 C 23,9 C 65 % 1015,9 hPa 0,0 l/m 0 min 0 min 385 W/m 19,3 km/h (3 Bft) 95,83 %
31.07.2019 13:24 22,7 C 24,4 C 23,9 C 63 % 1015,8 hPa 0,0 l/m 0 min 0 min 318 W/m 22,5 km/h (4 Bft) 91,67 %
31.07.2019 13:26 22,7 C 24,4 C 23,9 C 64 % 1015,9 hPa 0,0 l/m 0 min 0 min 336 W/m 16,1 km/h (3 Bft) 93,62 %
31.07.2019 13:28 22,7 C 24,4 C 23,3 C 63 % 1015,9 hPa 0,0 l/m 0 min 0 min 349 W/m 22,5 km/h (4 Bft) 95,65 %
31.07.2019 13:30 22,8 C 23,9 C 23,3 C 62 % 1015,9 hPa 0,0 l/m 0 min 0 min 365 W/m 25,7 km/h (4 Bft) 95,74 %
31.07.2019 13:32 22,8 C 23,9 C 23,3 C 62 % 1015,9 hPa 0,0 l/m 2 min 0 min 419 W/m 16,1 km/h (3 Bft) 95,74 %
31.07.2019 13:34 22,8 C 25,0 C 23,9 C 63 % 1015,8 hPa 0,0 l/m 2 min 0 min 515 W/m 22,5 km/h (4 Bft) 95,74 %
31.07.2019 13:36 22,8 C 25,6 C 25,0 C 62 % 1015,8 hPa 0,0 l/m 2 min 0 min 712 W/m 25,7 km/h (4 Bft) 97,92 %
31.07.2019 13:38 22,9 C 24,4 C 24,4 C 62 % 1015,8 hPa 0,0 l/m 2 min 0 min 718 W/m 25,7 km/h (4 Bft) 95,83 %
31.07.2019 13:40 22,9 C 25,6 C 25,0 C 63 % 1015,6 hPa 0,0 l/m 2 min 0 min 418 W/m 16,1 km/h (3 Bft) 93,62 %
31.07.2019 13:42 22,9 C 26,1 C 25,6 C 63 % 1015,6 hPa 0,0 l/m 2 min 0 min 416 W/m 25,7 km/h (4 Bft) 95,74 %
31.07.2019 13:44 23,0 C 26,7 C 26,7 C 62 % 1015,7 hPa 0,0 l/m 2 min 0 min 736 W/m 41,8 km/h (6 Bft) 95,65 %
31.07.2019 13:46 23,1 C 27,2 C 27,2 C 61 % 1015,6 hPa 0,0 l/m 2 min 0 min 1000 W/m 29,0 km/h (5 Bft) 95,74 %
31.07.2019 13:48 23,3 C 27,8 C 27,8 C 61 % 1015,7 hPa 0,0 l/m 2 min 0 min 991 W/m 22,5 km/h (4 Bft) 93,62 %
31.07.2019 13:50 23,4 C 26,7 C 27,8 C 60 % 1015,7 hPa 0,0 l/m 2 min 0 min 991 W/m 35,4 km/h (5 Bft) 95,74 %
31.07.2019 13:52 23,5 C 25,0 C 25,6 C 60 % 1015,7 hPa 0,0 l/m 2 min 0 min 758 W/m 25,7 km/h (4 Bft) 95,74 %
31.07.2019 13:54 23,6 C 23,9 C 23,9 C 60 % 1015,9 hPa 0,0 l/m 0 min 0 min 241 W/m 25,7 km/h (4 Bft) 93,62 %
31.07.2019 13:56 23,5 C 24,4 C 23,9 C 60 % 1015,7 hPa 0,0 l/m 0 min 0 min 309 W/m 22,5 km/h (4 Bft) 97,83 %
31.07.2019 13:58 23,5 C 25,0 C 24,4 C 60 % 1015,7 hPa 0,0 l/m 0 min 0 min 357 W/m 25,7 km/h (4 Bft) 97,87 %
31.07.2019 14:00 23,6 C 25,0 C 25,0 C 60 % 1015,7 hPa 0,0 l/m 0 min 0 min 399 W/m 16,1 km/h (3 Bft) 97,87 %
31.07.2019 14:02 23,5 C 23,9 C 23,9 C 59 % 1015,8 hPa 0,0 l/m 0 min 0 min 347 W/m 32,2 km/h (5 Bft) 97,92 %
31.07.2019 14:04 23,5 C 23,9 C 23,3 C 59 % 1015,7 hPa 0,0 l/m 0 min 0 min 338 W/m 25,7 km/h (4 Bft) 97,87 %
31.07.2019 14:06 23,4 C 23,9 C 23,3 C 59 % 1015,7 hPa 0,0 l/m 0 min 0 min 360 W/m 22,5 km/h (4 Bft) 97,83 %
31.07.2019 14:08 23,4 C 23,9 C 23,3 C 59 % 1015,7 hPa 0,0 l/m 2 min 0 min 423 W/m 32,2 km/h (5 Bft) 97,87 %
31.07.2019 14:10 23,4 C 23,9 C 23,3 C 59 % 1015,7 hPa 0,0 l/m 2 min 0 min 494 W/m 29,0 km/h (5 Bft) 97,87 %
31.07.2019 14:12 23,3 C 25,6 C 25,0 C 60 % 1015,7 hPa 0,0 l/m 2 min 0 min 582 W/m 16,1 km/h (3 Bft) 97,87 %
31.07.2019 14:14 23,3 C 26,1 C 25,6 C 60 % 1015,7 hPa 0,0 l/m 2 min 0 min 621 W/m 25,7 km/h (4 Bft) 100,00 %
31.07.2019 14:16 23,4 C 27,8 C 27,2 C 60 % 1015,7 hPa 0,0 l/m 2 min 0 min 818 W/m 19,3 km/h (3 Bft) 100,00 %
31.07.2019 14:18 23,5 C 27,2 C 26,7 C 60 % 1015,7 hPa 0,0 l/m 2 min 0 min 977 W/m 16,1 km/h (3 Bft) 100,00 %
31.07.2019 14:20 23,6 C 26,7 C 26,1 C 59 % 1015,7 hPa 0,0 l/m 2 min 0 min 429 W/m 25,7 km/h (4 Bft) 97,87 %
31.07.2019 14:22 23,6 C 25,6 C 25,6 C 59 % 1015,7 hPa 0,0 l/m 2 min 0 min 462 W/m 22,5 km/h (4 Bft) 97,87 %
31.07.2019 14:24 23,7 C 25,6 C 25,0 C 59 % 1015,7 hPa 0,0 l/m 2 min 0 min 471 W/m 19,3 km/h (3 Bft) 100,00 %
31.07.2019 14:26 23,7 C 26,7 C 26,7 C 58 % 1015,7 hPa 0,0 l/m 2 min 0 min 590 W/m 29,0 km/h (5 Bft) 100,00 %
31.07.2019 14:28 23,8 C 29,4 C 28,9 C 60 % 1015,7 hPa 0,0 l/m 2 min 0 min 1052 W/m 9,7 km/h (2 Bft) 100,00 %
31.07.2019 14:30 23,9 C 29,4 C 28,9 C 58 % 1015,7 hPa 0,0 l/m 2 min 0 min 1054 W/m 25,7 km/h (4 Bft) 97,83 %
31.07.2019 14:32 24,1 C 28,9 C 28,3 C 58 % 1015,6 hPa 0,0 l/m 2 min 0 min 996 W/m 12,9 km/h (3 Bft) 100,00 %
31.07.2019 14:34 24,2 C 28,9 C 27,8 C 58 % 1015,8 hPa 0,0 l/m 2 min 0 min 970 W/m 12,9 km/h (3 Bft) 100,00 %
31.07.2019 14:36 24,3 C 27,2 C 26,7 C 57 % 1015,7 hPa 0,0 l/m 2 min 0 min 717 W/m 25,7 km/h (4 Bft) 100,00 %
31.07.2019 14:38 24,4 C 26,1 C 25,6 C 57 % 1015,8 hPa 0,0 l/m 2 min 0 min 503 W/m 25,7 km/h (4 Bft) 100,00 %
31.07.2019 14:40 24,4 C 25,0 C 25,0 C 57 % 1015,6 hPa 0,0 l/m 2 min 0 min 425 W/m 19,3 km/h (3 Bft) 100,00 %
31.07.2019 14:42 24,3 C 24,4 C 24,4 C 57 % 1015,7 hPa 0,0 l/m 2 min 0 min 420 W/m 25,7 km/h (4 Bft) 100,00 %
31.07.2019 14:44 24,3 C 26,1 C 24,4 C 57 % 1015,7 hPa 0,0 l/m 2 min 0 min 548 W/m 22,5 km/h (4 Bft) 100,00 %
31.07.2019 14:46 24,2 C 26,7 C 25,0 C 57 % 1015,7 hPa 0,0 l/m 2 min 0 min 998 W/m 22,5 km/h (4 Bft) 97,87 %
31.07.2019 14:48 24,2 C 29,4 C 25,6 C 58 % 1015,6 hPa 0,0 l/m 2 min 0 min 1124 W/m 12,9 km/h (3 Bft) 100,00 %
31.07.2019 14:50 24,4 C 29,4 C 26,7 C 58 % 1015,7 hPa 0,0 l/m 2 min 0 min 808 W/m 19,3 km/h (3 Bft) 100,00 %
31.07.2019 14:52 24,6 C 27,8 C 26,1 C 57 % 1015,7 hPa 0,0 l/m 2 min 0 min 697 W/m 29,0 km/h (5 Bft) 100,00 %
31.07.2019 14:54 24,6 C 27,2 C 25,6 C 56 % 1015,7 hPa 0,0 l/m 2 min 0 min 609 W/m 32,2 km/h (5 Bft) 100,00 %
31.07.2019 14:56 24,6 C 26,7 C 25,6 C 56 % 1015,5 hPa 0,0 l/m 2 min 0 min 514 W/m 16,1 km/h (3 Bft) 100,00 %
31.07.2019 14:58 24,6 C 28,3 C 26,1 C 57 % 1015,5 hPa 0,0 l/m 2 min 0 min 496 W/m 16,1 km/h (3 Bft) 100,00 %
31.07.2019 15:00 24,7 C 27,2 C 25,6 C 56 % 1015,6 hPa 0,0 l/m 2 min 0 min 477 W/m 16,1 km/h (3 Bft) 100,00 %
31.07.2019 15:02 24,7 C 26,1 C 25,0 C 56 % 1015,6 hPa 0,0 l/m 2 min 0 min 427 W/m 16,1 km/h (3 Bft) 97,87 %
31.07.2019 15:04 24,7 C 26,1 C 25,0 C 56 % 1015,5 hPa 0,0 l/m 2 min 0 min 472 W/m 16,1 km/h (3 Bft) 97,83 %
31.07.2019 15:06 24,7 C 27,8 C 25,6 C 57 % 1015,4 hPa 0,0 l/m 2 min 0 min 464 W/m 19,3 km/h (3 Bft) 97,87 %
31.07.2019 15:08 24,7 C 26,1 C 25,0 C 55 % 1015,6 hPa 0,0 l/m 2 min 0 min 428 W/m 25,7 km/h (4 Bft) 100,00 %
31.07.2019 15:10 24,7 C 25,6 C 25,0 C 56 % 1015,5 hPa 0,0 l/m 0 min 0 min 319 W/m 19,3 km/h (3 Bft) 100,00 %
31.07.2019 15:12 24,7 C 26,7 C 25,0 C 56 % 1015,5 hPa 0,0 l/m 0 min 0 min 322 W/m 9,7 km/h (2 Bft) 95,65 %
31.07.2019 15:14 24,7 C 27,2 C 25,0 C 56 % 1015,6 hPa 0,0 l/m 0 min 0 min 322 W/m 29,0 km/h (5 Bft) 97,87 %
31.07.2019 15:16 24,7 C 27,2 C 25,0 C 56 % 1015,5 hPa 0,0 l/m 2 min 0 min 471 W/m 16,1 km/h (3 Bft) 100,00 %
31.07.2019 15:18 24,8 C 28,9 C 25,6 C 56 % 1015,4 hPa 0,0 l/m 2 min 0 min 1014 W/m 9,7 km/h (2 Bft) 97,87 %
31.07.2019 15:20 24,8 C 29,4 C 26,1 C 55 % 1015,4 hPa 0,0 l/m 2 min 0 min 997 W/m 22,5 km/h (4 Bft) 100,00 %
31.07.2019 15:22 24,9 C 27,8 C 25,6 C 55 % 1015,4 hPa 0,0 l/m 2 min 0 min 953 W/m 12,9 km/h (3 Bft) 97,87 %
31.07.2019 15:24 24,9 C 27,8 C 26,1 C 55 % 1015,4 hPa 0,0 l/m 0 min 0 min 290 W/m 22,5 km/h (4 Bft) 95,65 %
31.07.2019 15:26 25,0 C 28,3 C 26,1 C 54 % 1015,5 hPa 0,0 l/m 0 min 0 min 331 W/m 12,9 km/h (3 Bft) 95,74 %
31.07.2019 15:28 25,1 C 30,0 C 26,7 C 54 % 1015,4 hPa 0,0 l/m 2 min 0 min 643 W/m 19,3 km/h (3 Bft) 97,87 %
31.07.2019 15:30 25,2 C 31,1 C 26,7 C 55 % 1015,4 hPa 0,0 l/m 2 min 0 min 944 W/m 12,9 km/h (3 Bft) 95,74 %
31.07.2019 15:32 25,4 C 30,6 C 26,7 C 53 % 1015,6 hPa 0,0 l/m 2 min 0 min 908 W/m 16,1 km/h (3 Bft) 95,74 %
31.07.2019 15:34 25,5 C 30,0 C 26,1 C 53 % 1015,4 hPa 0,0 l/m 2 min 0 min 889 W/m 9,7 km/h (2 Bft) 100,00 %
31.07.2019 15:36 25,6 C 31,1 C 26,1 C 53 % 1015,4 hPa 0,0 l/m 2 min 0 min 902 W/m 16,1 km/h (3 Bft) 97,83 %
31.07.2019 15:38 25,8 C 31,1 C 26,1 C 52 % 1015,3 hPa 0,0 l/m 2 min 0 min 930 W/m 12,9 km/h (3 Bft) 97,87 %
31.07.2019 15:40 25,9 C 30,0 C 26,1 C 51 % 1015,4 hPa 0,0 l/m 2 min 0 min 919 W/m 22,5 km/h (4 Bft) 97,87 %
31.07.2019 15:42 25,9 C 27,8 C 25,6 C 51 % 1015,5 hPa 0,0 l/m 2 min 0 min 918 W/m 22,5 km/h (4 Bft) 97,87 %
31.07.2019 15:44 25,9 C 27,8 C 25,6 C 51 % 1015,4 hPa 0,0 l/m 2 min 0 min 765 W/m 22,5 km/h (4 Bft) 95,74 %
31.07.2019 15:46 25,9 C 29,4 C 26,1 C 51 % 1015,4 hPa 0,0 l/m 2 min 0 min 485 W/m 16,1 km/h (3 Bft) 95,74 %
31.07.2019 15:48 25,9 C 27,8 C 25,6 C 51 % 1015,4 hPa 0,0 l/m 2 min 0 min 464 W/m 19,3 km/h (3 Bft) 89,13 %
31.07.2019 15:50 25,9 C 26,7 C 25,6 C 51 % 1015,5 hPa 0,0 l/m 0 min 0 min 339 W/m 19,3 km/h (3 Bft) 95,74 %
31.07.2019 15:52 25,8 C 26,1 C 25,0 C 51 % 1015,5 hPa 0,0 l/m 0 min 0 min 226 W/m 19,3 km/h (3 Bft) 95,74 %
31.07.2019 15:54 25,8 C 26,1 C 25,0 C 51 % 1015,4 hPa 0,0 l/m 0 min 0 min 260 W/m 12,9 km/h (3 Bft) 93,62 %
31.07.2019 15:56 25,7 C 26,7 C 25,0 C 51 % 1015,4 hPa 0,0 l/m 0 min 0 min 331 W/m 19,3 km/h (3 Bft) 91,49 %
31.07.2019 15:58 25,6 C 26,1 C 25,0 C 51 % 1015,5 hPa 0,0 l/m 0 min 0 min 334 W/m 22,5 km/h (4 Bft) 95,65 %
31.07.2019 16:00 25,6 C 26,7 C 25,0 C 51 % 1015,5 hPa 0,0 l/m 2 min 0 min 369 W/m 19,3 km/h (3 Bft) 95,74 %
31.07.2019 16:02 25,4 C 27,2 C 25,6 C 50 % 1015,5 hPa 0,0 l/m 2 min 0 min 557 W/m 22,5 km/h (4 Bft) 95,74 %
31.07.2019 16:04 25,4 C 28,3 C 25,6 C 51 % 1015,5 hPa 0,0 l/m 2 min 0 min 830 W/m 16,1 km/h (3 Bft) 93,62 %
31.07.2019 16:06 25,4 C 27,2 C 25,6 C 51 % 1015,5 hPa 0,0 l/m 2 min 0 min 476 W/m 22,5 km/h (4 Bft) 95,74 %
31.07.2019 16:08 25,4 C 27,2 C 25,6 C 51 % 1015,6 hPa 0,0 l/m 2 min 0 min 487 W/m 41,8 km/h (6 Bft) 93,62 %
31.07.2019 16:10 25,3 C 26,7 C 25,0 C 51 % 1015,6 hPa 0,0 l/m 2 min 0 min 728 W/m 35,4 km/h (5 Bft) 97,83 %
31.07.2019 16:12 25,2 C 26,7 C 24,4 C 51 % 1015,5 hPa 0,0 l/m 2 min 0 min 707 W/m 22,5 km/h (4 Bft) 93,62 %
31.07.2019 16:14 25,2 C 25,6 C 24,4 C 51 % 1015,5 hPa 0,0 l/m 2 min 0 min 523 W/m 38,6 km/h (5 Bft) 93,62 %
31.07.2019 16:16 25,1 C 25,6 C 24,4 C 51 % 1015,5 hPa 0,0 l/m 2 min 0 min 497 W/m 32,2 km/h (5 Bft) 95,74 %
31.07.2019 16:18 25,1 C 26,7 C 24,4 C 52 % 1015,6 hPa 0,0 l/m 2 min 0 min 523 W/m 19,3 km/h (3 Bft) 97,87 %
31.07.2019 16:20 25,0 C 26,1 C 24,4 C 52 % 1015,5 hPa 0,0 l/m 2 min 0 min 497 W/m 25,7 km/h (4 Bft) 100,00 %
31.07.2019 16:22 24,9 C 26,1 C 24,4 C 52 % 1015,5 hPa 0,0 l/m 2 min 0 min 466 W/m 19,3 km/h (3 Bft) 97,83 %
31.07.2019 16:24 24,9 C 25,6 C 24,4 C 52 % 1015,5 hPa 0,0 l/m 0 min 0 min 302 W/m 19,3 km/h (3 Bft) 97,87 %
31.07.2019 16:26 24,8 C 25,0 C 24,4 C 52 % 1015,5 hPa 0,0 l/m 0 min 0 min 253 W/m 12,9 km/h (3 Bft) 100,00 %
31.07.2019 16:28 24,8 C 25,0 C 24,4 C 52 % 1015,5 hPa 0,0 l/m 0 min 0 min 233 W/m 9,7 km/h (2 Bft) 100,00 %
31.07.2019 16:30 24,7 C 25,0 C 24,4 C 53 % 1015,5 hPa 0,0 l/m 0 min 0 min 247 W/m 16,1 km/h (3 Bft) 97,87 %
31.07.2019 16:32 24,7 C 25,0 C 24,4 C 53 % 1015,5 hPa 0,0 l/m 0 min 0 min 299 W/m 16,1 km/h (3 Bft) 100,00 %
31.07.2019 16:34 24,6 C 26,1 C 24,4 C 54 % 1015,5 hPa 0,0 l/m 2 min 0 min 446 W/m 9,7 km/h (2 Bft) 96,55 %
31.07.2019 16:36 24,7 C 27,2 C 25,0 C 53 % 1015,5 hPa 0,0 l/m 2 min 0 min 531 W/m 16,1 km/h (3 Bft) 100,00 %
31.07.2019 16:38 24,7 C 27,8 C 25,6 C 52 % 1015,5 hPa 0,0 l/m 2 min 0 min 538 W/m 19,3 km/h (3 Bft) 97,83 %
31.07.2019 16:40 24,7 C 28,9 C 25,6 C 53 % 1015,5 hPa 0,0 l/m 2 min 0 min 844 W/m 9,7 km/h (2 Bft) 96,61 %
31.07.2019 16:42 24,8 C 29,4 C 26,1 C 54 % 1015,5 hPa 0,0 l/m 2 min 0 min 855 W/m 16,1 km/h (3 Bft) 93,62 %
31.07.2019 16:44 24,9 C 29,4 C 26,7 C 53 % 1015,5 hPa 0,0 l/m 2 min 0 min 828 W/m 9,7 km/h (2 Bft) 94,29 %
31.07.2019 16:46 25,1 C 28,3 C 26,1 C 54 % 1015,5 hPa 0,0 l/m 2 min 0 min 502 W/m 9,7 km/h (2 Bft) 98,28 %
31.07.2019 16:48 25,1 C 26,7 C 25,6 C 54 % 1015,5 hPa 0,0 l/m 0 min 0 min 252 W/m 9,7 km/h (2 Bft) 95,74 %
31.07.2019 16:50 25,2 C 25,6 C 25,0 C 52 % 1015,5 hPa 0,0 l/m 0 min 0 min 216 W/m 16,1 km/h (3 Bft) 97,14 %
31.07.2019 16:52 25,1 C 25,0 C 25,0 C 52 % 1015,5 hPa 0,0 l/m 0 min 0 min 230 W/m 16,1 km/h (3 Bft) 96,61 %
31.07.2019 16:54 25,1 C 25,6 C 24,4 C 52 % 1015,4 hPa 0,0 l/m 0 min 0 min 255 W/m 9,7 km/h (2 Bft) 97,14 %
31.07.2019 16:56 25,1 C 26,1 C 24,4 C 52 % 1015,4 hPa 0,0 l/m 0 min 0 min 249 W/m 19,3 km/h (3 Bft) 94,92 %
31.07.2019 16:58 25,1 C 26,7 C 25,0 C 52 % 1015,4 hPa 0,0 l/m 0 min 0 min 248 W/m 19,3 km/h (3 Bft) 95,65 %
31.07.2019 17:00 25,1 C 26,1 C 25,0 C 52 % 1015,5 hPa 0,0 l/m 0 min 0 min 248 W/m 22,5 km/h (4 Bft) 97,14 %
31.07.2019 17:02 25,1 C 25,6 C 25,0 C 52 % 1015,4 hPa 0,0 l/m 0 min 0 min 260 W/m 22,5 km/h (4 Bft) 98,31 %
31.07.2019 17:04 25,1 C 25,0 C 24,4 C 52 % 1015,5 hPa 0,0 l/m 0 min 0 min 249 W/m 19,3 km/h (3 Bft) 97,14 %
31.07.2019 17:06 25,1 C 25,6 C 25,0 C 53 % 1015,5 hPa 0,0 l/m 0 min 0 min 264 W/m 16,1 km/h (3 Bft) 98,31 %
31.07.2019 17:08 25,1 C 26,1 C 25,0 C 53 % 1015,5 hPa 0,0 l/m 0 min 0 min 295 W/m 16,1 km/h (3 Bft) 97,14 %
31.07.2019 17:10 25,1 C 25,6 C 24,4 C 52 % 1015,6 hPa 0,0 l/m 0 min 0 min 270 W/m 12,9 km/h (3 Bft) 97,92 %
31.07.2019 17:12 25,0 C 25,0 C 24,4 C 53 % 1015,5 hPa 0,0 l/m 0 min 0 min 214 W/m 9,7 km/h (2 Bft) 98,00 %
31.07.2019 17:14 24,9 C 24,4 C 23,9 C 53 % 1015,6 hPa 0,0 l/m 0 min 0 min 227 W/m 16,1 km/h (3 Bft) 97,87 %
31.07.2019 17:16 24,8 C 24,4 C 23,9 C 53 % 1015,6 hPa 0,0 l/m 0 min 0 min 218 W/m 12,9 km/h (3 Bft) 97,87 %
31.07.2019 17:18 24,8 C 23,9 C 23,3 C 53 % 1015,6 hPa 0,0 l/m 0 min 0 min 192 W/m 16,1 km/h (3 Bft) 97,87 %
31.07.2019 17:20 24,6 C 23,9 C 23,3 C 53 % 1015,6 hPa 0,0 l/m 0 min 0 min 161 W/m 16,1 km/h (3 Bft) 95,74 %
31.07.2019 17:22 24,5 C 23,3 C 23,3 C 53 % 1015,6 hPa 0,0 l/m 0 min 0 min 136 W/m 16,1 km/h (3 Bft) 97,83 %
31.07.2019 17:24 24,4 C 23,3 C 23,3 C 54 % 1015,5 hPa 0,0 l/m 0 min 0 min 121 W/m 9,7 km/h (2 Bft) 97,87 %
31.07.2019 17:26 24,3 C 22,8 C 23,3 C 54 % 1015,6 hPa 0,0 l/m 0 min 0 min 118 W/m 19,3 km/h (3 Bft) 97,87 %
31.07.2019 17:28 24,2 C 22,8 C 22,8 C 54 % 1015,6 hPa 0,0 l/m 0 min 0 min 124 W/m 16,1 km/h (3 Bft) 97,87 %
31.07.2019 17:30 24,1 C 23,3 C 22,8 C 55 % 1015,8 hPa 0,0 l/m 0 min 0 min 137 W/m 19,3 km/h (3 Bft) 100,00 %
31.07.2019 17:32 23,9 C 23,3 C 22,8 C 55 % 1015,7 hPa 0,0 l/m 0 min 0 min 156 W/m 9,7 km/h (2 Bft) 100,00 %
31.07.2019 17:34 23,9 C 23,3 C 23,3 C 56 % 1015,7 hPa 0,0 l/m 0 min 0 min 179 W/m 12,9 km/h (3 Bft) 97,83 %
31.07.2019 17:36 23,8 C 23,3 C 23,3 C 56 % 1015,7 hPa 0,0 l/m 0 min 0 min 210 W/m 22,5 km/h (4 Bft) 100,00 %
31.07.2019 17:38 23,7 C 23,3 C 23,3 C 56 % 1015,8 hPa 0,0 l/m 0 min 0 min 241 W/m 12,9 km/h (3 Bft) 100,00 %
31.07.2019 17:40 23,6 C 23,9 C 22,8 C 56 % 1015,8 hPa 0,0 l/m 2 min 0 min 286 W/m 22,5 km/h (4 Bft) 97,87 %
31.07.2019 17:42 23,6 C 23,9 C 23,3 C 56 % 1015,7 hPa 0,0 l/m 2 min 0 min 286 W/m 12,9 km/h (3 Bft) 97,87 %
31.07.2019 17:44 23,5 C 24,4 C 23,3 C 56 % 1015,7 hPa 0,0 l/m 2 min 0 min 360 W/m 6,4 km/h (2 Bft) 100,00 %
31.07.2019 17:46 23,5 C 23,9 C 23,3 C 55 % 1015,7 hPa 0,0 l/m 2 min 0 min 295 W/m 16,1 km/h (3 Bft) 97,83 %
31.07.2019 17:48 23,5 C 23,9 C 22,8 C 55 % 1015,7 hPa 0,0 l/m 0 min 0 min 242 W/m 19,3 km/h (3 Bft) 100,00 %
31.07.2019 17:50 23,4 C 23,9 C 22,8 C 55 % 1015,7 hPa 0,0 l/m 0 min 0 min 244 W/m 9,7 km/h (2 Bft) 100,00 %
31.07.2019 17:52 23,4 C 23,9 C 22,8 C 55 % 1015,7 hPa 0,0 l/m 2 min 0 min 266 W/m 6,4 km/h (2 Bft) 100,00 %
31.07.2019 17:54 23,4 C 24,4 C 23,3 C 56 % 1015,7 hPa 0,0 l/m 2 min 0 min 275 W/m 6,4 km/h (2 Bft) 100,00 %
31.07.2019 17:56 23,4 C 23,9 C 23,3 C 55 % 1015,7 hPa 0,0 l/m 0 min 0 min 221 W/m 12,9 km/h (3 Bft) 100,00 %
31.07.2019 17:58 23,4 C 23,3 C 23,3 C 55 % 1015,7 hPa 0,0 l/m 0 min 0 min 184 W/m 16,1 km/h (3 Bft) 100,00 %
31.07.2019 18:00 23,4 C 22,8 C 22,8 C 55 % 1015,7 hPa 0,0 l/m 0 min 0 min 159 W/m 16,1 km/h (3 Bft) 100,00 %
31.07.2019 18:02 23,3 C 22,8 C 22,8 C 55 % 1015,7 hPa 0,0 l/m 0 min 0 min 141 W/m 16,1 km/h (3 Bft) 100,00 %
31.07.2019 18:04 23,3 C 22,8 C 22,8 C 56 % 1015,7 hPa 0,0 l/m 0 min 0 min 129 W/m 9,7 km/h (2 Bft) 97,87 %
31.07.2019 18:08 23,3 C 22,8 C 22,8 C 55 % 1015,7 hPa 0,0 l/m 0 min 0 min 119 W/m 12,9 km/h (3 Bft) 98,94 %
31.07.2019 18:10 23,2 C 22,8 C 22,8 C 56 % 1015,7 hPa 0,0 l/m 0 min 0 min 109 W/m 12,9 km/h (3 Bft) 100,00 %
31.07.2019 18:12 23,2 C 22,2 C 22,8 C 55 % 1015,7 hPa 0,0 l/m 0 min 0 min 105 W/m 12,9 km/h (3 Bft) 97,87 %
31.07.2019 18:14 23,2 C 22,2 C 22,2 C 55 % 1015,7 hPa 0,0 l/m 0 min 0 min 100 W/m 19,3 km/h (3 Bft) 95,74 %
31.07.2019 18:16 23,1 C 22,2 C 22,2 C 55 % 1015,7 hPa 0,0 l/m 0 min 0 min 98 W/m 12,9 km/h (3 Bft) 95,74 %
31.07.2019 18:18 23,1 C 22,2 C 22,2 C 56 % 1015,7 hPa 0,0 l/m 0 min 0 min 102 W/m 9,7 km/h (2 Bft) 93,62 %
31.07.2019 18:20 23,1 C 22,8 C 22,2 C 56 % 1015,6 hPa 0,0 l/m 0 min 0 min 113 W/m 6,4 km/h (2 Bft) 97,83 %
31.07.2019 18:22 23,1 C 22,8 C 22,2 C 55 % 1015,6 hPa 0,0 l/m 0 min 0 min 128 W/m 16,1 km/h (3 Bft) 97,87 %
31.07.2019 18:24 23,0 C 22,8 C 22,2 C 55 % 1015,7 hPa 0,0 l/m 0 min 0 min 151 W/m 19,3 km/h (3 Bft) 95,74 %
31.07.2019 18:26 23,0 C 22,8 C 22,2 C 54 % 1015,7 hPa 0,0 l/m 0 min 0 min 169 W/m 16,1 km/h (3 Bft) 95,74 %
31.07.2019 18:28 23,0 C 23,9 C 22,8 C 55 % 1015,7 hPa 0,0 l/m 2 min 0 min 219 W/m 6,4 km/h (2 Bft) 95,74 %
31.07.2019 18:30 23,0 C 23,9 C 22,8 C 55 % 1015,6 hPa 0,0 l/m 2 min 0 min 245 W/m 19,3 km/h (3 Bft) 97,87 %
31.07.2019 18:32 23,0 C 24,4 C 22,8 C 55 % 1015,6 hPa 0,0 l/m 2 min 0 min 285 W/m 12,9 km/h (3 Bft) 95,65 %
31.07.2019 18:34 23,1 C 25,6 C 22,8 C 55 % 1015,6 hPa 0,0 l/m 2 min 0 min 403 W/m 12,9 km/h (3 Bft) 95,74 %
31.07.2019 18:36 23,1 C 25,0 C 23,3 C 55 % 1015,6 hPa 0,0 l/m 2 min 0 min 343 W/m 19,3 km/h (3 Bft) 93,62 %
31.07.2019 18:38 23,2 C 25,0 C 23,3 C 55 % 1015,7 hPa 0,0 l/m 2 min 0 min 330 W/m 16,1 km/h (3 Bft) 95,74 %
31.07.2019 18:40 23,2 C 24,4 C 23,3 C 55 % 1015,7 hPa 0,0 l/m 2 min 0 min 256 W/m 19,3 km/h (3 Bft) 95,74 %
31.07.2019 18:42 23,3 C 24,4 C 23,3 C 54 % 1015,6 hPa 0,0 l/m 2 min 0 min 240 W/m 22,5 km/h (4 Bft) 95,74 %
31.07.2019 18:44 23,3 C 25,0 C 23,3 C 54 % 1015,7 hPa 0,0 l/m 2 min 0 min 274 W/m 22,5 km/h (4 Bft) 95,65 %
31.07.2019 18:46 23,4 C 25,6 C 23,3 C 54 % 1015,6 hPa 0,0 l/m 2 min 0 min 355 W/m 16,1 km/h (3 Bft) 95,74 %
31.07.2019 18:48 23,4 C 25,6 C 23,3 C 55 % 1015,7 hPa 0,0 l/m 2 min 0 min 397 W/m 19,3 km/h (3 Bft) 93,62 %
31.07.2019 18:50 23,5 C 24,4 C 23,3 C 54 % 1015,7 hPa 0,0 l/m 2 min 0 min 303 W/m 16,1 km/h (3 Bft) 95,74 %
31.07.2019 18:52 23,6 C 23,9 C 22,8 C 54 % 1015,7 hPa 0,0 l/m 2 min 0 min 179 W/m 12,9 km/h (3 Bft) 95,74 %
31.07.2019 18:54 23,6 C 23,9 C 22,8 C 54 % 1015,7 hPa 0,0 l/m 0 min 0 min 154 W/m 19,3 km/h (3 Bft) 93,62 %
31.07.2019 18:56 23,6 C 23,3 C 22,8 C 54 % 1015,7 hPa 0,0 l/m 0 min 0 min 136 W/m 16,1 km/h (3 Bft) 95,65 %
31.07.2019 18:58 23,6 C 23,3 C 22,8 C 54 % 1015,7 hPa 0,0 l/m 0 min 0 min 128 W/m 16,1 km/h (3 Bft) 97,87 %
31.07.2019 19:00 23,6 C 23,3 C 22,8 C 55 % 1015,7 hPa 0,0 l/m 0 min 0 min 124 W/m 6,4 km/h (2 Bft) 97,87 %
31.07.2019 19:02 23,6 C 23,3 C 22,8 C 55 % 1015,7 hPa 0,0 l/m 0 min 0 min 125 W/m 12,9 km/h (3 Bft) 98,11 %
31.07.2019 19:04 23,6 C 22,8 C 22,8 C 55 % 1015,7 hPa 0,0 l/m 0 min 0 min 124 W/m 9,7 km/h (2 Bft) 97,87 %
31.07.2019 19:06 23,6 C 22,8 C 22,8 C 55 % 1015,7 hPa 0,0 l/m 0 min 0 min 112 W/m 6,4 km/h (2 Bft) 97,87 %
31.07.2019 19:08 23,5 C 22,8 C 22,8 C 55 % 1015,7 hPa 0,0 l/m 0 min 0 min 107 W/m 9,7 km/h (2 Bft) 97,87 %
31.07.2019 19:10 23,5 C 22,8 C 22,8 C 55 % 1015,7 hPa 0,0 l/m 0 min 0 min 103 W/m 12,9 km/h (3 Bft) 97,83 %
31.07.2019 19:12 23,4 C 22,8 C 22,8 C 55 % 1015,7 hPa 0,0 l/m 0 min 0 min 102 W/m 9,7 km/h (2 Bft) 97,87 %
31.07.2019 19:14 23,4 C 22,8 C 22,8 C 55 % 1015,7 hPa 0,0 l/m 0 min 0 min 99 W/m 9,7 km/h (2 Bft) 95,74 %
31.07.2019 19:16 23,4 C 22,8 C 22,8 C 55 % 1015,7 hPa 0,0 l/m 0 min 0 min 98 W/m 12,9 km/h (3 Bft) 97,87 %
31.07.2019 19:18 23,4 C 22,8 C 22,8 C 55 % 1015,7 hPa 0,0 l/m 0 min 0 min 100 W/m 9,7 km/h (2 Bft) 97,87 %
31.07.2019 19:20 23,4 C 22,8 C 22,2 C 56 % 1015,7 hPa 0,0 l/m 0 min 0 min 101 W/m 12,9 km/h (3 Bft) 97,87 %
31.07.2019 19:22 23,3 C 22,8 C 22,8 C 55 % 1015,8 hPa 0,0 l/m 0 min 0 min 108 W/m 9,7 km/h (2 Bft) 97,83 %
31.07.2019 19:24 23,3 C 22,8 C 22,2 C 55 % 1015,7 hPa 0,0 l/m 0 min 0 min 114 W/m 22,5 km/h (4 Bft) 97,87 %
31.07.2019 19:26 23,3 C 22,8 C 22,2 C 55 % 1015,7 hPa 0,0 l/m 0 min 0 min 114 W/m 16,1 km/h (3 Bft) 97,87 %
31.07.2019 19:28 23,2 C 22,8 C 22,2 C 55 % 1015,7 hPa 0,0 l/m 0 min 0 min 111 W/m 12,9 km/h (3 Bft) 97,87 %
31.07.2019 19:30 23,2 C 22,8 C 22,2 C 55 % 1015,8 hPa 0,0 l/m 0 min 0 min 103 W/m 9,7 km/h (2 Bft) 97,87 %
31.07.2019 19:32 23,2 C 22,8 C 22,2 C 56 % 1015,7 hPa 0,0 l/m 0 min 0 min 95 W/m 9,7 km/h (2 Bft) 97,83 %
31.07.2019 19:34 23,2 C 22,2 C 22,2 C 56 % 1015,7 hPa 0,0 l/m 0 min 0 min 89 W/m 19,3 km/h (3 Bft) 100,00 %
31.07.2019 19:36 23,1 C 22,2 C 22,2 C 56 % 1015,8 hPa 0,0 l/m 0 min 0 min 85 W/m 9,7 km/h (2 Bft) 100,00 %
31.07.2019 19:38 23,1 C 22,2 C 22,2 C 56 % 1015,8 hPa 0,0 l/m 0 min 0 min 86 W/m 9,7 km/h (2 Bft) 98,00 %
31.07.2019 19:40 23,1 C 22,2 C 21,7 C 55 % 1015,8 hPa 0,0 l/m 0 min 0 min 92 W/m 19,3 km/h (3 Bft) 100,00 %
31.07.2019 19:42 23,1 C 22,2 C 22,2 C 56 % 1015,8 hPa 0,0 l/m 0 min 0 min 93 W/m 9,7 km/h (2 Bft) 97,87 %
31.07.2019 19:44 23,0 C 22,2 C 22,2 C 56 % 1015,8 hPa 0,0 l/m 0 min 0 min 88 W/m 9,7 km/h (2 Bft) 95,65 %
31.07.2019 19:46 23,0 C 22,2 C 22,2 C 56 % 1015,8 hPa 0,0 l/m 0 min 0 min 83 W/m 22,5 km/h (4 Bft) 97,87 %
31.07.2019 19:48 22,9 C 22,2 C 22,2 C 56 % 1015,8 hPa 0,0 l/m 0 min 0 min 76 W/m 12,9 km/h (3 Bft) 95,74 %
31.07.2019 19:50 22,9 C 22,2 C 22,2 C 56 % 1015,8 hPa 0,0 l/m 0 min 0 min 76 W/m 12,9 km/h (3 Bft) 93,62 %
31.07.2019 19:52 22,9 C 22,2 C 21,7 C 56 % 1015,7 hPa 0,0 l/m 0 min 0 min 71 W/m 16,1 km/h (3 Bft) 97,87 %
31.07.2019 19:53 22,9 C 22,2 C 21,7 C 56 % 1015,8 hPa 0,0 l/m 0 min 0 min 72 W/m 12,9 km/h (3 Bft) 97,83 %
31.07.2019 19:56 22,8 C 22,2 C 21,7 C 57 % 1015,7 hPa 0,0 l/m 0 min 0 min 71 W/m 9,7 km/h (2 Bft) 97,87 %
31.07.2019 19:58 22,8 C 22,2 C 21,7 C 57 % 1015,8 hPa 0,0 l/m 0 min 0 min 72 W/m 12,9 km/h (3 Bft) 97,87 %
31.07.2019 20:00 22,8 C 22,2 C 21,7 C 57 % 1015,9 hPa 0,0 l/m 0 min 0 min 73 W/m 12,9 km/h (3 Bft) 97,87 %
31.07.2019 20:02 22,8 C 22,2 C 21,7 C 57 % 1015,8 hPa 0,0 l/m 0 min 0 min 77 W/m 9,7 km/h (2 Bft) 97,87 %
31.07.2019 20:04 22,8 C 22,2 C 21,7 C 57 % 1015,8 hPa 0,0 l/m 0 min 0 min 82 W/m 12,9 km/h (3 Bft) 95,74 %
31.07.2019 20:06 22,8 C 22,2 C 21,7 C 57 % 1015,9 hPa 0,0 l/m 0 min 0 min 83 W/m 9,7 km/h (2 Bft) 97,83 %
31.07.2019 20:08 22,8 C 22,2 C 21,7 C 57 % 1015,9 hPa 0,0 l/m 0 min 0 min 83 W/m 12,9 km/h (3 Bft) 97,87 %
31.07.2019 20:10 22,8 C 22,2 C 21,7 C 57 % 1015,9 hPa 0,0 l/m 0 min 0 min 77 W/m 9,7 km/h (2 Bft) 97,87 %
31.07.2019 20:12 22,7 C 22,2 C 21,7 C 57 % 1015,9 hPa 0,0 l/m 0 min 0 min 73 W/m 6,4 km/h (2 Bft) 97,87 %
31.07.2019 20:14 22,7 C 22,2 C 21,7 C 57 % 1015,9 hPa 0,0 l/m 0 min 0 min 67 W/m 6,4 km/h (2 Bft) 97,87 %
31.07.2019 20:16 22,7 C 22,2 C 21,7 C 57 % 1015,9 hPa 0,0 l/m 0 min 0 min 61 W/m 6,4 km/h (2 Bft) 95,74 %
31.07.2019 20:18 22,7 C 21,7 C 21,7 C 57 % 1015,9 hPa 0,0 l/m 0 min 0 min 54 W/m 16,1 km/h (3 Bft) 97,83 %
31.07.2019 20:20 22,7 C 21,7 C 21,7 C 57 % 1016,0 hPa 0,0 l/m 0 min 0 min 50 W/m 6,4 km/h (2 Bft) 97,87 %
31.07.2019 20:22 22,7 C 21,7 C 21,7 C 57 % 1016,0 hPa 0,0 l/m 0 min 0 min 45 W/m 12,9 km/h (3 Bft) 97,87 %
31.07.2019 20:24 22,7 C 21,7 C 21,7 C 56 % 1016,1 hPa 0,0 l/m 0 min 0 min 43 W/m 19,3 km/h (3 Bft) 97,87 %
31.07.2019 20:26 22,6 C 21,7 C 21,7 C 57 % 1016,1 hPa 0,0 l/m 0 min 0 min 40 W/m 9,7 km/h (2 Bft) 95,74 %
31.07.2019 20:28 22,6 C 21,1 C 21,1 C 56 % 1016,1 hPa 0,0 l/m 0 min 0 min 37 W/m 16,1 km/h (3 Bft) 97,87 %
31.07.2019 20:30 22,6 C 21,1 C 21,1 C 56 % 1016,2 hPa 0,0 l/m 0 min 0 min 34 W/m 12,9 km/h (3 Bft) 97,83 %
31.07.2019 20:32 22,5 C 21,1 C 21,1 C 57 % 1016,2 hPa 0,0 l/m 0 min 0 min 33 W/m 16,1 km/h (3 Bft) 97,87 %
31.07.2019 20:34 22,5 C 21,1 C 21,1 C 57 % 1016,1 hPa 0,0 l/m 0 min 0 min 32 W/m 12,9 km/h (3 Bft) 100,00 %
31.07.2019 20:36 22,4 C 21,1 C 21,1 C 57 % 1016,1 hPa 0,0 l/m 0 min 0 min 32 W/m 9,7 km/h (2 Bft) 100,00 %
31.07.2019 20:38 22,4 C 21,1 C 21,1 C 57 % 1016,2 hPa 0,0 l/m 0 min 0 min 32 W/m 9,7 km/h (2 Bft) 97,87 %
31.07.2019 20:40 22,4 C 21,1 C 21,1 C 57 % 1016,2 hPa 0,0 l/m 0 min 0 min 30 W/m 9,7 km/h (2 Bft) 100,00 %
31.07.2019 20:42 22,3 C 21,1 C 21,1 C 57 % 1016,2 hPa 0,0 l/m 0 min 0 min 28 W/m 12,9 km/h (3 Bft) 97,83 %
31.07.2019 20:44 22,3 C 21,1 C 21,1 C 58 % 1016,2 hPa 0,0 l/m 0 min 0 min 26 W/m 12,9 km/h (3 Bft) 100,00 %
31.07.2019 20:46 22,3 C 21,1 C 21,1 C 57 % 1016,1 hPa 0,0 l/m 0 min 0 min 25 W/m 9,7 km/h (2 Bft) 100,00 %
31.07.2019 20:48 22,2 C 20,6 C 20,6 C 58 % 1016,2 hPa 0,0 l/m 0 min 0 min 24 W/m 9,7 km/h (2 Bft) 97,87 %
31.07.2019 20:50 22,2 C 20,6 C 20,6 C 58 % 1016,3 hPa 0,0 l/m 0 min 0 min 22 W/m 12,9 km/h (3 Bft) 95,74 %
31.07.2019 20:52 22,2 C 20,6 C 20,6 C 58 % 1016,3 hPa 0,0 l/m 0 min 0 min 20 W/m 9,7 km/h (2 Bft) 97,87 %
31.07.2019 20:54 22,1 C 20,6 C 20,6 C 58 % 1016,3 hPa 0,0 l/m 0 min 0 min 18 W/m 9,7 km/h (2 Bft) 97,83 %
31.07.2019 20:56 22,1 C 20,6 C 20,6 C 58 % 1016,3 hPa 0,0 l/m 0 min 0 min 17 W/m 12,9 km/h (3 Bft) 95,74 %
31.07.2019 20:58 22,0 C 20,6 C 20,6 C 58 % 1016,3 hPa 0,0 l/m 0 min 0 min 16 W/m 9,7 km/h (2 Bft) 97,87 %
31.07.2019 21:00 21,9 C 20,6 C 20,6 C 58 % 1016,3 hPa 0,0 l/m 0 min 0 min 15 W/m 6,4 km/h (2 Bft) 97,87 %
31.07.2019 21:02 21,9 C 20,6 C 20,6 C 59 % 1016,4 hPa 0,0 l/m 0 min 0 min 14 W/m 6,4 km/h (2 Bft) 95,74 %
31.07.2019 21:04 21,9 C 20,6 C 20,6 C 59 % 1016,5 hPa 0,0 l/m 0 min 0 min 12 W/m 6,4 km/h (2 Bft) 97,83 %
31.07.2019 21:06 21,8 C 20,6 C 20,6 C 59 % 1016,4 hPa 0,0 l/m 0 min 0 min 12 W/m 16,1 km/h (3 Bft) 97,87 %
31.07.2019 21:08 21,8 C 20,0 C 20,6 C 59 % 1016,5 hPa 0,0 l/m 0 min 0 min 11 W/m 6,4 km/h (2 Bft) 95,74 %
31.07.2019 21:10 21,8 C 20,0 C 20,6 C 59 % 1016,5 hPa 0,0 l/m 0 min 0 min 9 W/m 9,7 km/h (2 Bft) 95,74 %
31.07.2019 21:12 21,7 C 20,0 C 20,6 C 60 % 1016,6 hPa 0,0 l/m 0 min 0 min 7 W/m 12,9 km/h (3 Bft) 93,62 %
31.07.2019 21:14 21,7 C 20,0 C 20,6 C 60 % 1016,6 hPa 0,0 l/m 0 min 0 min 7 W/m 9,7 km/h (2 Bft) 97,87 %
31.07.2019 21:16 21,6 C 20,0 C 20,0 C 60 % 1016,6 hPa 0,0 l/m 0 min 0 min 5 W/m 9,7 km/h (2 Bft) 93,48 %
31.07.2019 21:18 21,6 C 20,0 C 20,0 C 60 % 1016,6 hPa 0,0 l/m 0 min 0 min 5 W/m 6,4 km/h (2 Bft) 97,87 %
31.07.2019 21:20 21,6 C 20,0 C 20,0 C 61 % 1016,6 hPa 0,0 l/m 0 min 0 min 2 W/m 6,4 km/h (2 Bft) 97,87 %
31.07.2019 21:22 21,5 C 20,0 C 20,0 C 61 % 1016,6 hPa 0,0 l/m 0 min 0 min 0 W/m 6,4 km/h (2 Bft) 97,87 %
31.07.2019 21:24 21,4 C 20,0 C 20,0 C 61 % 1016,7 hPa 0,0 l/m 0 min 0 min 0 W/m 9,7 km/h (2 Bft) 97,87 %
31.07.2019 21:26 21,4 C 20,0 C 20,0 C 61 % 1016,7 hPa 0,0 l/m 0 min 0 min 0 W/m 9,7 km/h (2 Bft) 95,74 %
31.07.2019 21:28 21,4 C 19,4 C 20,0 C 61 % 1016,7 hPa 0,0 l/m 0 min 0 min 0 W/m 6,4 km/h (2 Bft) 97,83 %
31.07.2019 21:30 21,3 C 19,4 C 20,0 C 61 % 1016,8 hPa 0,0 l/m 0 min 0 min 0 W/m 6,4 km/h (2 Bft) 95,74 %
31.07.2019 21:32 21,3 C 19,4 C 20,0 C 61 % 1016,7 hPa 0,0 l/m 0 min 0 min 0 W/m 3,2 km/h (1 Bft) 95,74 %
31.07.2019 21:34 21,3 C 19,4 C 19,4 C 61 % 1016,8 hPa 0,0 l/m 0 min 0 min 0 W/m 3,2 km/h (1 Bft) 97,87 %
31.07.2019 21:36 21,2 C 19,4 C 19,4 C 61 % 1016,8 hPa 0,0 l/m 0 min 0 min 0 W/m 6,4 km/h (2 Bft) 100,00 %
31.07.2019 21:38 21,2 C 19,4 C 19,4 C 61 % 1016,8 hPa 0,0 l/m 0 min 0 min 0 W/m 9,7 km/h (2 Bft) 97,87 %
31.07.2019 21:40 21,2 C 19,4 C 19,4 C 62 % 1016,8 hPa 0,0 l/m 0 min 0 min 0 W/m 3,2 km/h (1 Bft) 97,83 %
31.07.2019 21:42 21,1 C 19,4 C 19,4 C 62 % 1016,8 hPa 0,0 l/m 0 min 0 min 0 W/m 6,4 km/h (2 Bft) 95,74 %
31.07.2019 21:44 21,1 C 18,9 C 19,4 C 62 % 1016,8 hPa 0,0 l/m 0 min 0 min 0 W/m 3,2 km/h (1 Bft) 100,00 %
31.07.2019 21:46 21,0 C 18,9 C 19,4 C 62 % 1016,9 hPa 0,0 l/m 0 min 0 min 0 W/m 3,2 km/h (1 Bft) 97,87 %
31.07.2019 21:48 21,0 C 18,9 C 19,4 C 62 % 1017,0 hPa 0,0 l/m 0 min 0 min 0 W/m 3,2 km/h (1 Bft) 97,87 %
31.07.2019 21:50 20,9 C 18,9 C 19,4 C 62 % 1016,9 hPa 0,0 l/m 0 min 0 min 0 W/m 6,4 km/h (2 Bft) 97,87 %
31.07.2019 21:52 20,8 C 18,9 C 18,9 C 62 % 1017,0 hPa 0,0 l/m 0 min 0 min 0 W/m 6,4 km/h (2 Bft) 95,65 %
31.07.2019 21:54 20,8 C 18,9 C 18,9 C 62 % 1017,0 hPa 0,0 l/m 0 min 0 min 0 W/m 3,2 km/h (1 Bft) 97,87 %
31.07.2019 21:56 20,8 C 18,9 C 18,9 C 62 % 1017,0 hPa 0,0 l/m 0 min 0 min 0 W/m 0,0 km/h (0 Bft) 95,74 %
31.07.2019 21:58 20,7 C 18,9 C 18,9 C 62 % 1017,0 hPa 0,0 l/m 0 min 0 min 0 W/m 0,0 km/h (0 Bft) 93,62 %
31.07.2019 22:00 20,7 C 18,9 C 18,9 C 62 % 1017,0 hPa 0,0 l/m 0 min 0 min 0 W/m 0,0 km/h (0 Bft) 97,87 %
31.07.2019 22:02 20,7 C 18,9 C 18,9 C 62 % 1017,0 hPa 0,0 l/m 0 min 0 min 0 W/m 0,0 km/h (0 Bft) 97,87 %
31.07.2019 22:04 20,6 C 18,9 C 18,9 C 63 % 1016,9 hPa 0,0 l/m 0 min 0 min 0 W/m 3,2 km/h (1 Bft) 97,83 %
31.07.2019 22:06 20,6 C 18,3 C 18,9 C 63 % 1017,0 hPa 0,0 l/m 0 min 0 min 0 W/m 3,2 km/h (1 Bft) 97,87 %
31.07.2019 22:08 20,5 C 18,3 C 18,9 C 63 % 1017,0 hPa 0,0 l/m 0 min 0 min 0 W/m 3,2 km/h (1 Bft) 97,87 %
31.07.2019 22:10 20,4 C 18,3 C 18,9 C 63 % 1017,0 hPa 0,0 l/m 0 min 0 min 0 W/m 3,2 km/h (1 Bft) 97,87 %
31.07.2019 22:12 20,4 C 18,3 C 18,9 C 64 % 1017,0 hPa 0,0 l/m 0 min 0 min 0 W/m 3,2 km/h (1 Bft) 95,74 %
31.07.2019 22:14 20,4 C 18,3 C 18,3 C 64 % 1017,1 hPa 0,0 l/m 0 min 0 min 0 W/m 6,4 km/h (2 Bft) 97,83 %
31.07.2019 22:16 20,3 C 18,3 C 18,3 C 64 % 1017,0 hPa 0,0 l/m 0 min 0 min 0 W/m 9,7 km/h (2 Bft) 95,74 %
31.07.2019 22:18 20,3 C 18,3 C 18,3 C 64 % 1017,0 hPa 0,0 l/m 0 min 0 min 0 W/m 6,4 km/h (2 Bft) 97,87 %
31.07.2019 22:20 20,2 C 18,3 C 18,3 C 64 % 1017,0 hPa 0,0 l/m 0 min 0 min 0 W/m 6,4 km/h (2 Bft) 97,87 %
31.07.2019 22:22 20,2 C 18,3 C 18,3 C 64 % 1017,1 hPa 0,0 l/m 0 min 0 min 0 W/m 3,2 km/h (1 Bft) 97,87 %
31.07.2019 22:24 20,1 C 18,3 C 18,3 C 65 % 1017,0 hPa 0,0 l/m 0 min 0 min 0 W/m 6,4 km/h (2 Bft) 97,87 %
31.07.2019 22:26 20,1 C 18,3 C 18,3 C 65 % 1017,0 hPa 0,0 l/m 0 min 0 min 0 W/m 0,0 km/h (0 Bft) 97,83 %
31.07.2019 22:28 20,1 C 18,3 C 18,3 C 65 % 1017,1 hPa 0,0 l/m 0 min 0 min 0 W/m 6,4 km/h (2 Bft) 97,87 %
31.07.2019 22:30 20,0 C 18,3 C 18,3 C 65 % 1017,2 hPa 0,0 l/m 0 min 0 min 0 W/m 6,4 km/h (2 Bft) 97,87 %
31.07.2019 22:32 20,0 C 18,3 C 18,3 C 65 % 1017,1 hPa 0,0 l/m 0 min 0 min 0 W/m 3,2 km/h (1 Bft) 97,87 %
31.07.2019 22:34 19,9 C 18,3 C 18,3 C 65 % 1017,1 hPa 0,0 l/m 0 min 0 min 0 W/m 3,2 km/h (1 Bft) 95,74 %
31.07.2019 22:36 19,9 C 18,3 C 18,3 C 65 % 1017,1 hPa 0,0 l/m 0 min 0 min 0 W/m 3,2 km/h (1 Bft) 97,87 %
31.07.2019 22:38 19,9 C 18,3 C 18,3 C 65 % 1017,1 hPa 0,0 l/m 0 min 0 min 0 W/m 9,7 km/h (2 Bft) 100,00 %
31.07.2019 22:40 19,8 C 18,3 C 18,3 C 65 % 1017,2 hPa 0,0 l/m 0 min 0 min 0 W/m 12,9 km/h (3 Bft) 100,00 %
31.07.2019 22:42 19,8 C 18,3 C 18,3 C 65 % 1017,2 hPa 0,0 l/m 0 min 0 min 0 W/m 9,7 km/h (2 Bft) 100,00 %
31.07.2019 22:44 19,7 C 18,3 C 18,3 C 66 % 1017,1 hPa 0,0 l/m 0 min 0 min 0 W/m 9,7 km/h (2 Bft) 97,87 %
31.07.2019 22:46 19,7 C 18,3 C 18,3 C 66 % 1017,2 hPa 0,0 l/m 0 min 0 min 0 W/m 6,4 km/h (2 Bft) 97,87 %
31.07.2019 22:48 19,7 C 18,3 C 17,8 C 66 % 1017,2 hPa 0,0 l/m 0 min 0 min 0 W/m 6,4 km/h (2 Bft) 100,00 %
31.07.2019 22:50 19,6 C 18,3 C 17,8 C 66 % 1017,2 hPa 0,0 l/m 0 min 0 min 0 W/m 9,7 km/h (2 Bft) 100,00 %
31.07.2019 22:52 19,6 C 18,3 C 17,8 C 66 % 1017,2 hPa 0,0 l/m 0 min 0 min 0 W/m 6,4 km/h (2 Bft) 100,00 %
31.07.2019 22:54 19,6 C 18,3 C 17,8 C 66 % 1017,1 hPa 0,0 l/m 0 min 0 min 0 W/m 0,0 km/h (0 Bft) 100,00 %
31.07.2019 22:56 19,6 C 17,8 C 17,8 C 66 % 1017,2 hPa 0,0 l/m 0 min 0 min 0 W/m 6,4 km/h (2 Bft) 100,00 %
31.07.2019 22:58 19,5 C 17,8 C 17,8 C 66 % 1017,2 hPa 0,0 l/m 0 min 0 min 0 W/m 6,4 km/h (2 Bft) 100,00 %
31.07.2019 23:00 19,4 C 17,8 C 17,8 C 67 % 1017,2 hPa 0,0 l/m 0 min 0 min 0 W/m 6,4 km/h (2 Bft) 100,00 %
31.07.2019 23:02 19,4 C 18,3 C 17,8 C 67 % 1017,3 hPa 0,0 l/m 0 min 0 min 0 W/m 6,4 km/h (2 Bft) 100,00 %
31.07.2019 23:04 19,4 C 17,8 C 17,8 C 67 % 1017,3 hPa 0,0 l/m 0 min 0 min 0 W/m 6,4 km/h (2 Bft) 100,00 %
31.07.2019 23:06 19,4 C 17,8 C 17,8 C 67 % 1017,2 hPa 0,0 l/m 0 min 0 min 0 W/m 6,4 km/h (2 Bft) 100,00 %
31.07.2019 23:08 19,3 C 17,8 C 17,8 C 67 % 1017,3 hPa 0,0 l/m 0 min 0 min 0 W/m 9,7 km/h (2 Bft) 100,00 %
31.07.2019 23:10 19,3 C 17,8 C 17,8 C 67 % 1017,3 hPa 0,0 l/m 0 min 0 min 0 W/m 6,4 km/h (2 Bft) 97,87 %
31.07.2019 23:12 19,3 C 17,8 C 17,8 C 67 % 1017,3 hPa 0,0 l/m 0 min 0 min 0 W/m 9,7 km/h (2 Bft) 97,83 %
31.07.2019 23:14 19,3 C 17,8 C 17,8 C 67 % 1017,3 hPa 0,0 l/m 0 min 0 min 0 W/m 6,4 km/h (2 Bft) 95,74 %
31.07.2019 23:16 19,2 C 17,8 C 17,8 C 68 % 1017,3 hPa 0,0 l/m 0 min 0 min 0 W/m 6,4 km/h (2 Bft) 97,87 %
31.07.2019 23:18 19,2 C 17,8 C 17,8 C 68 % 1017,4 hPa 0,0 l/m 0 min 0 min 0 W/m 9,7 km/h (2 Bft) 95,74 %
31.07.2019 23:20 19,2 C 17,8 C 17,8 C 68 % 1017,3 hPa 0,0 l/m 0 min 0 min 0 W/m 6,4 km/h (2 Bft) 97,87 %
31.07.2019 23:22 19,2 C 17,8 C 17,8 C 68 % 1017,4 hPa 0,0 l/m 0 min 0 min 0 W/m 9,7 km/h (2 Bft) 97,87 %
31.07.2019 23:24 19,1 C 17,8 C 17,8 C 68 % 1017,4 hPa 0,0 l/m 0 min 0 min 0 W/m 6,4 km/h (2 Bft) 97,83 %
31.07.2019 23:26 19,1 C 17,8 C 17,8 C 68 % 1017,4 hPa 0,0 l/m 0 min 0 min 0 W/m 9,7 km/h (2 Bft) 95,74 %
31.07.2019 23:28 19,1 C 17,8 C 17,2 C 68 % 1017,4 hPa 0,0 l/m 0 min 0 min 0 W/m 9,7 km/h (2 Bft) 97,87 %
31.07.2019 23:30 19,1 C 17,8 C 17,2 C 68 % 1017,4 hPa 0,0 l/m 0 min 0 min 0 W/m 6,4 km/h (2 Bft) 97,87 %
31.07.2019 23:32 19,0 C 17,8 C 17,2 C 69 % 1017,4 hPa 0,0 l/m 0 min 0 min 0 W/m 6,4 km/h (2 Bft) 97,87 %
31.07.2019 23:34 19,0 C 17,8 C 17,2 C 69 % 1017,5 hPa 0,0 l/m 0 min 0 min 0 W/m 6,4 km/h (2 Bft) 97,87 %
31.07.2019 23:36 18,9 C 17,8 C 17,2 C 69 % 1017,5 hPa 0,0 l/m 0 min 0 min 0 W/m 6,4 km/h (2 Bft) 97,83 %
31.07.2019 23:38 18,9 C 17,8 C 17,2 C 69 % 1017,5 hPa 0,0 l/m 0 min 0 min 0 W/m 9,7 km/h (2 Bft) 97,87 %
31.07.2019 23:40 18,9 C 17,8 C 17,2 C 69 % 1017,5 hPa 0,0 l/m 0 min 0 min 0 W/m 9,7 km/h (2 Bft) 93,62 %
31.07.2019 23:42 18,9 C 17,2 C 17,2 C 69 % 1017,5 hPa 0,0 l/m 0 min 0 min 0 W/m 9,7 km/h (2 Bft) 93,62 %
31.07.2019 23:44 18,8 C 17,2 C 17,2 C 69 % 1017,5 hPa 0,0 l/m 0 min 0 min 0 W/m 9,7 km/h (2 Bft) 93,62 %
31.07.2019 23:46 18,8 C 17,2 C 17,2 C 69 % 1017,5 hPa 0,0 l/m 0 min 0 min 0 W/m 9,7 km/h (2 Bft) 95,74 %
31.07.2019 23:48 18,8 C 17,2 C 17,2 C 69 % 1017,6 hPa 0,0 l/m 0 min 0 min 0 W/m 9,7 km/h (2 Bft) 95,65 %
31.07.2019 23:50 18,8 C 17,2 C 17,2 C 70 % 1017,5 hPa 0,0 l/m 0 min 0 min 0 W/m 9,7 km/h (2 Bft) 95,74 %
31.07.2019 23:52 18,7 C 17,2 C 17,2 C 70 % 1017,5 hPa 0,0 l/m 0 min 0 min 0 W/m 9,7 km/h (2 Bft) 95,74 %
31.07.2019 23:54 18,7 C 17,2 C 17,2 C 70 % 1017,5 hPa 0,0 l/m 0 min 0 min 0 W/m 9,7 km/h (2 Bft) 95,74 %
31.07.2019 23:56 18,7 C 17,2 C 17,2 C 70 % 1017,6 hPa 0,0 l/m 0 min 0 min 0 W/m 12,9 km/h (3 Bft) 95,74 %
31.07.2019 23:58 18,7 C 17,2 C 17,2 C 70 % 1017,5 hPa 0,0 l/m 0 min 0 min 0 W/m 6,4 km/h (2 Bft) 95,74 %
_ Min-Zeit 07:22 05:56 01:22 16:02 00:02 - - - - 00:26 15:48
Minimum _ 18,3 C 17,2 C 16,7 C 50 % 1012,9 hPa - - - - 0,0 km/h (0 Bft) 89,13 %
_ Max-Zeit 15:40 15:30 14:28 07:20 23:48 00:00 08:50 11:58 14:48 13:44 00:50
Maximum _ 25,9 C 31,1 C 28,9 C 75 % 1017,6 hPa 0,0 l/m 2 min 2 min 1124 W/m 41,8 km/h
S-SO (6 Bft)
100,00 %
Durchschnitt _ 21,2 C 21,2 C 20,7 C 65 % 1015,2 hPa #0,0 l/m #5:42 h #12 min. 288 W/m 12,4 km/h (3 Bft) 97,40 %
© 2019 W. Hausmann